FW0644 Weather Reports


Display with metric or nautical units.
time (UTC)temp
F
wind
direction
speed
MPH
gust
MPH
rain 1hr
in
rain 24hr
in
rain mn
in
humidity
%
barometer
mb
20201029105313 43 53 4.0 9.0 0.00 0.00 0.00 50 1029.0
20201029105210 43 51 5.0 6.0 0.00 0.00 0.00 50 1029.0
20201029105110 43 47 4.0 6.0 0.00 0.00 0.00 50 1029.0
20201029105021 43 46 4.0 7.0 0.00 0.00 0.00 50 1029.0
20201029104910 43 56 3.0 10.0 0.00 0.00 0.00 50 1029.0
20201029104811 43 55 3.0 10.0 0.00 0.00 0.00 50 1030.0
20201029104711 43 51 3.0 10.0 0.00 0.00 0.00 50 1030.0
20201029104612 43 56 3.0 10.0 0.00 0.00 0.00 50 1030.0
20201029104525 43 57 3.0 10.0 0.00 0.00 0.00 51 1030.0
20201029104411 43 53 4.0 10.0 0.00 0.00 0.00 50 1030.0
20201029104311 43 52 3.0 10.0 0.00 0.00 0.00 50 1030.0
20201029104225 43 51 4.0 10.0 0.00 0.00 0.00 50 1030.0
20201029104114 43 52 6.0 10.0 0.00 0.00 0.00 50 1030.0
20201029104019 43 53 8.0 10.0 0.00 0.00 0.00 50 1030.0
20201029103911 43 47 5.0 10.0 0.00 0.00 0.00 50 1030.0
20201029103819 43 43 6.0 9.0 0.00 0.00 0.00 50 1030.0
20201029103710 43 43 5.0 9.0 0.00 0.00 0.00 50 1030.0
20201029103610 43 38 4.0 9.0 0.00 0.00 0.00 51 1030.0
20201029103510 43 37 4.0 9.0 0.00 0.00 0.00 51 1030.0
20201029103410 43 43 4.0 9.0 0.00 0.00 0.00 51 1030.0
20201029103310 43 46 3.0 9.0 0.00 0.00 0.00 51 1030.0
20201029103213 43 51 3.0 9.0 0.00 0.00 0.00 51 1030.0
20201029103114 43 52 2.0 9.0 0.00 0.00 0.00 50 1030.0
20201029103054 43 51 2.0 9.0 0.00 0.00 0.00 50 1030.0
20201029102910 43 52 4.0 9.0 0.00 0.00 0.00 50 1030.0
20201029102813 43 48 3.0 9.0 0.00 0.00 0.00 50 1030.0
20201029102710 43 51 2.0 7.0 0.00 0.00 0.00 50 1030.0
20201029102610 43 53 5.0 7.0 0.00 0.00 0.00 50 1030.0
20201029102510 43 51 6.0 7.0 0.00 0.00 0.00 50 1030.0
20201029102411 43 53 4.0 7.0 0.00 0.00 0.00 50 1030.0
20201029102320 43 60 3.0 7.0 0.00 0.00 0.00 50 1030.0
20201029102210 43 65 2.0 7.0 0.00 0.00 0.00 50 1030.0
20201029102113 43 57 3.0 7.0 0.00 0.00 0.00 50 1030.0
20201029102043 43 52 3.0 7.0 0.00 0.00 0.00 50 1030.0
20201029101911 43 51 4.0 7.0 0.00 0.00 0.00 50 1030.0
20201029101810 43 54 3.0 7.0 0.00 0.00 0.00 51 1030.0
20201029101710 43 58 3.0 7.0 0.00 0.00 0.00 51 1030.0
20201029101616 42 59 4.0 7.0 0.00 0.00 0.00 51 1030.0
20201029101519 42 50 4.0 7.0 0.00 0.00 0.00 51 1030.0
20201029101410 42 46 3.0 7.0 0.00 0.00 0.00 51 1030.0
20201029101311 42 36 4.0 7.0 0.00 0.00 0.00 51 1030.0
20201029101213 42 32 4.0 7.0 0.00 0.00 0.00 51 1030.0
20201029101111 42 35 3.0 7.0 0.00 0.00 0.00 51 1030.0
20201029101025 42 49 3.0 7.0 0.00 0.00 0.00 51 1030.0
20201029100919 42 47 4.0 7.0 0.00 0.00 0.00 51 1030.0
20201029100825 42 14 5.0 7.0 0.00 0.00 0.00 51 1030.0
20201029100719 42 303 3.0 6.0 0.00 0.00 0.00 51 1030.0
20201029100612 42 293 4.0 6.0 0.00 0.00 0.00 52 1030.0
20201029100510 42 267 1.0 5.0 0.00 0.00 0.00 52 1030.0
20201029100415 42 267 2.0 5.0 0.00 0.00 0.00 51 1030.0
20201029100319 42 261 3.0 6.0 0.00 0.00 0.00 51 1030.0
20201029100235 42 282 2.0 6.0 0.00 0.00 0.00 51 1030.0
20201029100139 42 283 3.0 6.0 0.00 0.00 0.00 51 1030.0
20201029100028 42 274 4.0 6.0 0.00 0.00 0.00 51 1030.0
20201029095911 42 274 4.0 6.0 0.00 0.00 0.00 52 1030.0
20201029095819 42 276 2.0 8.0 0.00 0.00 0.00 52 1030.0
20201029095711 42 318 2.0 8.0 0.00 0.00 0.00 51 1030.0
20201029095610 42 290 3.0 8.0 0.00 0.00 0.00 51 1030.0
20201029095513 42 300 4.0 8.0 0.00 0.00 0.00 51 1030.0
20201029095412 42 301 4.0 8.0 0.00 0.00 0.00 51 1030.0
20201029095310 42 307 4.0 8.0 0.00 0.00 0.00 51 1030.0
20201029095210 42 304 4.0 8.0 0.00 0.00 0.00 50 1030.0
20201029095114 42 284 2.0 8.0 0.00 0.00 0.00 50 1030.0
20201029095025 42 303 4.0 8.0 0.00 0.00 0.00 50 1030.0
20201029094910 42 337 6.0 8.0 0.00 0.00 0.00 50 1030.0
20201029094814 42 352 4.0 8.0 0.00 0.00 0.00 50 1030.0
20201029094712 42 286 3.0 6.0 0.00 0.00 0.00 51 1030.0
20201029094622 42 311 1.0 6.0 0.00 0.00 0.00 51 1030.0
20201029094518 42 347 3.0 6.0 0.00 0.00 0.00 50 1030.0
20201029094410 42 6 2.0 6.0 0.00 0.00 0.00 51 1030.0
20201029094311 42 38 3.0 6.0 0.00 0.00 0.00 51 1030.0
20201029094209 41 29 4.0 6.0 0.00 0.00 0.00 51 1030.0
20201029094118 41 17 5.0 6.0 0.00 0.00 0.00 50 1030.0
20201029094015 42 42 3.0 6.0 0.00 0.00 0.00 51 1030.0
20201029093911 42 45 1.0 6.0 0.00 0.00 0.00 51 1030.0
20201029093810 41 40 4.0 6.0 0.00 0.00 0.00 51 1030.0
20201029093710 41 42 4.0 6.0 0.00 0.00 0.00 51 1030.0
20201029093609 41 72 4.0 6.0 0.00 0.00 0.00 51 1030.0
20201029093511 41 52 3.0 6.0 0.00 0.00 0.00 51 1030.0
20201029093410 41 332 4.0 6.0 0.00 0.00 0.00 51 1030.0
20201029093311 41 246 6.0 6.0 0.00 0.00 0.00 51 1030.0
20201029093210 41 219 4.0 6.0 0.00 0.00 0.00 51 1030.0
20201029093111 41 199 5.0 6.0 0.00 0.00 0.00 51 1030.0
20201029093028 41 221 3.0 6.0 0.00 0.00 0.00 51 1030.0
20201029092912 41 233 4.0 6.0 0.00 0.00 0.00 51 1030.0
20201029092818 41 231 4.0 6.0 0.00 0.00 0.00 52 1030.0
20201029092710 41 229 3.0 6.0 0.00 0.00 0.00 52 1030.0
20201029092610 41 60 2.0 9.0 0.00 0.00 0.00 53 1030.0
20201029092512 41 60 1.0 9.0 0.00 0.00 0.00 54 1030.0
20201029092417 41 60 2.0 9.0 0.00 0.00 0.00 54 1030.0
20201029092310 41 56 3.0 9.0 0.00 0.00 0.00 54 1030.0
20201029092215 40 49 2.0 9.0 0.00 0.00 0.00 54 1030.0
20201029092112 40 40 2.0 9.0 0.00 0.00 0.00 55 1030.0
20201029092019 40 41 3.0 9.0 0.00 0.00 0.00 56 1030.0
20201029091910 40 43 3.0 9.0 0.00 0.00 0.00 56 1030.0
20201029091815 40 44 8.0 9.0 0.00 0.00 0.00 56 1030.0
20201029091712 40 44 6.0 9.0 0.00 0.00 0.00 56 1030.0
20201029091610 40 40 4.0 11.0 0.00 0.00 0.00 57 1030.0
20201029091519 40 41 3.0 11.0 0.00 0.00 0.00 57 1030.0
20201029091412 40 41 4.0 11.0 0.00 0.00 0.00 59 1030.0
20201029091314 40 42 3.0 11.0 0.00 0.00 0.00 59 1030.0
20201029091222 40 42 2.0 11.0 0.00 0.00 0.00 60 1030.0
20201029091111 39 43 3.0 11.0 0.00 0.00 0.00 59 1030.0
20201029091010 39 43 2.0 11.0 0.00 0.00 0.00 59 1030.0
20201029090911 39 45 6.0 11.0 0.00 0.00 0.00 59 1030.0
20201029090811 39 46 8.0 11.0 0.00 0.00 0.00 59 1030.0
20201029090710 39 46 7.0 11.0 0.00 0.00 0.00 59 1030.0
20201029090613 38 43 5.0 10.0 0.00 0.00 0.00 59 1030.0
20201029090521 38 42 5.0 8.0 0.00 0.00 0.00 60 1030.0
20201029090410 38 44 3.0 8.0 0.00 0.00 0.00 60 1030.0
20201029090310 38 43 3.0 10.0 0.00 0.00 0.00 60 1031.0
20201029090212 38 41 3.0 10.0 0.00 0.00 0.00 60 1031.0
20201029090123 38 44 5.0 10.0 0.00 0.00 0.00 59 1031.0
20201029090024 38 45 6.0 10.0 0.00 0.00 0.00 60 1031.0
20201029085914 38 49 4.0 10.0 0.00 0.00 0.00 60 1031.0
20201029085812 38 47 2.0 10.0 0.00 0.00 0.00 60 1031.0
20201029085710 38 47 3.0 10.0 0.00 0.00 0.00 59 1031.0
20201029085610 38 51 4.0 10.0 0.00 0.00 0.00 59 1031.0
20201029085513 38 52 6.0 10.0 0.00 0.00 0.00 59 1031.0
20201029085416 38 51 6.0 10.0 0.00 0.00 0.00 59 1031.0
20201029085319 38 47 3.0 10.0 0.00 0.00 0.00 59 1031.0
20201029085211 38 47 4.0 9.0 0.00 0.00 0.00 59 1031.0
20201029085111 38 47 3.0 9.0 0.00 0.00 0.00 59 1031.0
20201029085033 38 43 5.0 9.0 0.00 0.00 0.00 59 1031.0
20201029084913 38 40 5.0 9.0 0.00 0.00 0.00 58 1031.0
20201029084812 38 40 8.0 9.0 0.00 0.00 0.00 58 1031.0
20201029084710 38 38 5.0 9.0 0.00 0.00 0.00 58 1031.0
20201029084616 38 38 4.0 8.0 0.00 0.00 0.00 58 1031.0
20201029084541 38 32 4.0 8.0 0.00 0.00 0.00 58 1031.0
20201029084411 38 32 5.0 8.0 0.00 0.00 0.00 57 1031.0
20201029084315 38 37 4.0 8.0 0.00 0.00 0.00 57 1031.0
20201029084210 38 39 7.0 8.0 0.00 0.00 0.00 57 1031.0
20201029084111 38 37 5.0 8.0 0.00 0.00 0.00 57 1031.0
20201029084020 38 36 4.0 8.0 0.00 0.00 0.00 57 1031.0
20201029083912 38 34 4.0 8.0 0.00 0.00 0.00 56 1031.0
20201029083820 38 30 5.0 8.0 0.00 0.00 0.00 56 1031.0
20201029083711 38 32 4.0 8.0 0.00 0.00 0.00 56 1031.0
20201029083610 38 30 4.0 8.0 0.00 0.00 0.00 55 1031.0
20201029083510 38 32 6.0 8.0 0.00 0.00 0.00 55 1031.0
20201029083413 38 32 4.0 8.0 0.00 0.00 0.00 54 1031.0
20201029083311 38 3 3.0 6.0 0.00 0.00 0.00 55 1032.0
20201029083213 38 286 2.0 4.0 0.00 0.00 0.00 55 1032.0
20201029083121 38 236 2.0 4.0 0.00 0.00 0.00 55 1032.0
20201029083038 38 198 1.0 4.0 0.00 0.00 0.00 55 1032.0
20201029082910 38 188 2.0 4.0 0.00 0.00 0.00 55 1032.0
20201029082810 38 165 3.0 4.0 0.00 0.00 0.00 54 1032.0
20201029082711 38 158 3.0 5.0 0.00 0.00 0.00 54 1032.0
20201029082612 38 158 3.0 8.0 0.00 0.00 0.00 54 1032.0
20201029082513 38 156 1.0 8.0 0.00 0.00 0.00 54 1032.0
20201029082411 38 156 2.0 8.0 0.00 0.00 0.00 54 1032.0
20201029082312 38 157 2.0 8.0 0.00 0.00 0.00 54 1032.0
20201029082211 38 152 2.0 8.0 0.00 0.00 0.00 54 1032.0
20201029082110 38 157 3.0 8.0 0.00 0.00 0.00 53 1032.0
20201029082010 38 162 1.0 8.0 0.00 0.00 0.00 53 1032.0
20201029081910 38 161 2.0 8.0 0.00 0.00 0.00 53 1032.0
20201029081816 38 166 6.0 8.0 0.00 0.00 0.00 53 1031.0
20201029081712 38 168 5.0 8.0 0.00 0.00 0.00 52 1031.0
20201029081611 38 177 4.0 8.0 0.00 0.00 0.00 52 1031.0
20201029081527 38 183 4.0 8.0 0.00 0.00 0.00 51 1031.0
20201029081416 38 191 2.0 8.0 0.00 0.00 0.00 51 1031.0
20201029081310 38 192 3.0 8.0 0.00 0.00 0.00 51 1031.0
20201029081214 38 198 4.0 8.0 0.00 0.00 0.00 51 1031.0
20201029081111 38 192 1.0 7.0 0.00 0.00 0.00 51 1031.0
20201029081012 38 197 1.0 6.0 0.00 0.00 0.00 52 1031.0
20201029080911 38 212 1.0 6.0 0.00 0.00 0.00 52 1031.0
20201029080810 38 200 1.0 6.0 0.00 0.00 0.00 51 1031.0
20201029080711 38 194 1.0 9.0 0.00 0.00 0.00 51 1031.0
20201029080614 38 194 2.0 9.0 0.00 0.00 0.00 51 1031.0
20201029080511 38 193 2.0 9.0 0.00 0.00 0.00 51 1031.0
20201029080411 38 193 1.0 9.0 0.00 0.00 0.00 51 1031.0
20201029080315 38 193 4.0 9.0 0.00 0.00 0.00 51 1032.0
20201029080212 38 195 2.0 9.0 0.00 0.00 0.00 51 1032.0
20201029080112 38 199 1.0 9.0 0.00 0.00 0.00 51 1032.0
20201029080028 38 195 3.0 9.0 0.00 0.00 0.00 51 1032.0
20201029075912 38 183 3.0 9.0 0.00 0.00 0.00 51 1032.0
20201029075810 39 181 4.0 9.0 0.00 0.00 0.00 51 1032.0
20201029075711 39 183 2.0 6.0 0.00 0.00 0.00 51 1032.0
20201029075612 39 185 3.0 4.0 0.00 0.00 0.00 51 1032.0
20201029075512 39 184 1.0 5.0 0.00 0.00 0.00 51 1032.0
20201029075417 39 183 1.0 5.0 0.00 0.00 0.00 52 1032.0
20201029075314 39 184 1.0 5.0 0.00 0.00 0.00 52 1032.0
20201029075211 39 188 3.0 5.0 0.00 0.00 0.00 51 1032.0
20201029075115 39 172 3.0 6.0 0.00 0.00 0.00 51 1032.0
20201029075030 39 166 2.0 6.0 0.00 0.00 0.00 51 1032.0
20201029074912 39 175 3.0 6.0 0.00 0.00 0.00 51 1032.0
20201029074813 38 166 1.0 6.0 0.00 0.00 0.00 51 1032.0
20201029074710 38 161 1.0 6.0 0.00 0.00 0.00 51 1032.0
20201029074611 38 168 4.0 6.0 0.00 0.00 0.00 51 1032.0
20201029074513 39 160 2.0 6.0 0.00 0.00 0.00 52 1032.0
20201029074410 38 153 2.0 6.0 0.00 0.00 0.00 52 1032.0
20201029074312 38 167 3.0 6.0 0.00 0.00 0.00 52 1032.0
20201029074212 38 171 3.0 6.0 0.00 0.00 0.00 52 1032.0
20201029074115 38 191 2.0 6.0 0.00 0.00 0.00 52 1032.0
20201029074011 38 188 3.0 6.0 0.00 0.00 0.00 52 1032.0
20201029073911 38 180 5.0 6.0 0.00 0.00 0.00 52 1032.0
20201029073810 38 185 1.0 6.0 0.00 0.00 0.00 52 1032.0
20201029073710 38 188 2.0 6.0 0.00 0.00 0.00 52 1032.0
20201029073611 38 183 2.0 6.0 0.00 0.00 0.00 52 1032.0
20201029073510 38 187 3.0 6.0 0.00 0.00 0.00 53 1032.0
20201029073411 38 188 2.0 6.0 0.00 0.00 0.00 53 1032.0
20201029073322 38 184 3.0 6.0 0.00 0.00 0.00 53 1032.0
20201029073210 38 183 2.0 6.0 0.00 0.00 0.00 52 1032.0
20201029073129 38 182 2.0 6.0 0.00 0.00 0.00 53 1032.0
20201029073055 38 175 2.0 6.0 0.00 0.00 0.00 53 1032.0
20201029072913 38 177 1.0 6.0 0.00 0.00 0.00 54 1032.0
20201029072810 38 181 1.0 8.0 0.00 0.00 0.00 54 1032.0
20201029072715 38 180 2.0 8.0 0.00 0.00 0.00 54 1032.0
20201029072612 38 180 4.0 8.0 0.00 0.00 0.00 53 1032.0
20201029072513 37 183 1.0 8.0 0.00 0.00 0.00 53 1032.0
20201029072413 37 188 4.0 8.0 0.00 0.00 0.00 54 1032.0
20201029072327 37 188 3.0 8.0 0.00 0.00 0.00 54 1032.0
20201029072214 37 181 2.0 8.0 0.00 0.00 0.00 53 1032.0
20201029072110 37 178 3.0 8.0 0.00 0.00 0.00 53 1032.0
20201029072024 37 182 5.0 8.0 0.00 0.00 0.00 53 1032.0
20201029071914 37 183 5.0 8.0 0.00 0.00 0.00 54 1032.0
20201029071821 37 184 3.0 8.0 0.00 0.00 0.00 55 1032.0
20201029071713 37 184 1.0 8.0 0.00 0.00 0.00 56 1032.0
20201029071624 37 184 3.0 8.0 0.00 0.00 0.00 56 1032.0
20201029071554 37 181 4.0 8.0 0.00 0.00 0.00 55 1032.0
20201029071434 37 179 4.0 8.0 0.00 0.00 0.00 55 1032.0
20201029071350 37 178 6.0 8.0 0.00 0.00 0.00 55 1032.0
20201029071214 36 180 5.0 8.0 0.00 0.00 0.00 55 1032.0
20201029071114 36 181 6.0 8.0 0.00 0.00 0.00 55 1032.0
20201029071022 36 182 5.0 8.0 0.00 0.00 0.00 55 1032.0
20201029070910 37 183 3.0 8.0 0.00 0.00 0.00 57 1032.0
20201029070811 37 181 4.0 8.0 0.00 0.00 0.00 57 1032.0
20201029070710 36 178 4.0 8.0 0.00 0.00 0.00 56 1032.0
20201029070611 36 178 4.0 8.0 0.00 0.00 0.00 57 1032.0
20201029070510 36 178 2.0 8.0 0.00 0.00 0.00 57 1032.0
20201029070409 36 179 4.0 8.0 0.00 0.00 0.00 56 1032.0
20201029070311 36 180 6.0 8.0 0.00 0.00 0.00 57 1032.0
20201029070212 36 179 5.0 8.0 0.00 0.00 0.00 57 1032.0
20201029070114 36 179 1.0 8.0 0.00 0.00 0.00 58 1032.0
20201029070024 36 181 2.0 8.0 0.00 0.00 0.00 57 1032.0
20201029065911 36 180 4.0 8.0 0.00 0.00 0.00 57 1032.0
20201029065812 36 177 2.0 8.0 0.00 0.00 0.00 58 1032.0
20201029065715 36 178 4.0 8.0 0.00 0.00 0.00 58 1032.0
20201029065611 36 181 6.0 8.0 0.00 0.00 0.00 58 1032.0
20201029065512 36 179 3.0 7.0 0.00 0.00 0.00 59 1032.0
20201029065410 36 177 2.0 6.0 0.00 0.00 0.00 60 1032.0
20201029065315 36 177 1.0 5.0 0.00 0.00 0.00 60 1032.0
20201029065210 35 176 2.0 5.0 0.00 0.00 0.00 60 1032.0
20201029065112 35 173 1.0 5.0 0.00 0.00 0.00 61 1032.0
20201029065011 35 171 1.0 5.0 0.00 0.00 0.00 62 1032.0
20201029064913 35 171 1.0 5.0 0.00 0.00 0.00 62 1032.0
20201029064813 35 174 4.0 5.0 0.00 0.00 0.00 63 1032.0
20201029064712 35 172 3.0 5.0 0.00 0.00 0.00 64 1032.0
20201029064610 35 171 3.0 5.0 0.00 0.00 0.00 64 1032.0
20201029064523 35 172 1.0 4.0 0.00 0.00 0.00 64 1032.0
20201029064410 35 175 1.0 4.0 0.00 0.00 0.00 64 1032.0
20201029064312 35 174 3.0 4.0 0.00 0.00 0.00 64 1032.0
20201029064211 35 176 1.0 4.0 0.00 0.00 0.00 65 1032.0
20201029064112 35 178 2.0 4.0 0.00 0.00 0.00 65 1032.0
20201029064012 35 178 2.0 4.0 0.00 0.00 0.00 66 1032.0
20201029063912 35 178 1.0 3.0 0.00 0.00 0.00 66 1032.0
20201029063814 34 178 1.0 3.0 0.00 0.00 0.00 65 1032.0
20201029063721 34 182 2.0 3.0 0.00 0.00 0.00 65 1032.0
20201029063622 34 186 1.0 3.0 0.00 0.00 0.00 65 1032.0
20201029063520 34 190 0.0 3.0 0.00 0.00 0.00 65 1032.0
20201029063413 34 185 2.0 3.0 0.00 0.00 0.00 65 1032.0
20201029063310 34 185 2.0 3.0 0.00 0.00 0.00 65 1032.0
20201029063211 34 185 2.0 3.0 0.00 0.00 0.00 64 1032.0
20201029063111 34 185 1.0 3.0 0.00 0.00 0.00 64 1032.0
20201029063030 34 175 1.0 3.0 0.00 0.00 0.00 64 1032.0
20201029062910 34 157 2.0 3.0 0.00 0.00 0.00 64 1032.0
20201029062812 34 177 2.0 3.0 0.00 0.00 0.00 63 1032.0
20201029062712 34 183 1.0 3.0 0.00 0.00 0.00 63 1032.0
20201029062611 34 142 2.0 3.0 0.00 0.00 0.00 63 1032.0
20201029062512 34 134 1.0 3.0 0.00 0.00 0.00 63 1032.0
20201029062415 34 179 1.0 3.0 0.00 0.00 0.00 63 1032.0
20201029062309 34 179 1.0 3.0 0.00 0.00 0.00 63 1032.0
20201029062218 34 172 1.0 3.0 0.00 0.00 0.00 63 1032.0
20201029062111 34 164 2.0 4.0 0.00 0.00 0.00 64 1032.0
20201029062020 34 168 1.0 4.0 0.00 0.00 0.00 65 1032.0
20201029061932 34 173 1.0 4.0 0.00 0.00 0.00 64 1032.0
20201029061822 34 169 1.0 4.0 0.00 0.00 0.00 64 1032.0
20201029061710 34 168 0.0 4.0 0.00 0.00 0.00 64 1032.0
20201029061617 34 169 1.0 4.0 0.00 0.00 0.00 64 1032.0
20201029061523 34 169 2.0 4.0 0.00 0.00 0.00 64 1032.0
20201029061412 34 169 2.0 4.0 0.00 0.00 0.00 64 1032.0
20201029061315 34 168 4.0 4.0 0.00 0.00 0.00 65 1032.0
20201029061210 34 175 3.0 4.0 0.00 0.00 0.00 65 1032.0
20201029061112 34 184 1.0 4.0 0.00 0.00 0.00 65 1032.0
20201029061020 34 187 3.0 4.0 0.00 0.00 0.00 65 1032.0
20201029060910 34 183 2.0 4.0 0.00 0.00 0.00 65 1032.0
20201029060818 34 183 2.0 4.0 0.00 0.00 0.00 65 1032.0
20201029060710 34 183 2.0 4.0 0.00 0.00 0.00 65 1032.0
20201029060609 34 184 0.0 4.0 0.00 0.00 0.00 65 1032.0
20201029060512 34 180 1.0 4.0 0.00 0.00 0.00 65 1032.0
20201029060413 34 169 2.0 5.0 0.00 0.00 0.00 66 1032.0
20201029060312 34 170 1.0 5.0 0.00 0.00 0.00 66 1032.0
20201029060211 34 169 2.0 5.0 0.00 0.00 0.00 66 1032.0
20201029060111 34 171 1.0 5.0 0.00 0.00 0.00 66 1032.0
20201029060034 34 170 3.0 5.0 0.00 0.00 0.00 66 1032.0
20201029055910 34 173 1.0 5.0 0.00 0.00 0.00 66 1032.0
20201029055821 34 173 2.0 5.0 0.00 0.00 0.00 66 1032.0
20201029055710 34 173 2.0 5.0 0.00 0.00 0.00 66 1032.0
20201029055610 34 169 4.0 5.0 0.00 0.00 0.00 66 1032.0
20201029055510 34 163 3.0 5.0 0.00 0.00 0.00 67 1032.0
20201029055412 34 179 2.0 4.0 0.00 0.00 0.00 68 1032.0
20201029055317 34 179 2.0 3.0 0.00 0.00 0.00 68 1032.0
20201029055215 34 176 1.0 3.0 0.00 0.00 0.00 68 1032.0
20201029055114 33 173 1.0 3.0 0.00 0.00 0.00 68 1032.0
20201029055021 34 172 1.0 3.0 0.00 0.00 0.00 69 1032.0
20201029054913 33 172 1.0 3.0 0.00 0.00 0.00 69 1032.0
20201029054813 33 174 1.0 3.0 0.00 0.00 0.00 68 1031.0
20201029054710 33 152 1.0 3.0 0.00 0.00 0.00 68 1031.0
20201029054610 33 157 2.0 3.0 0.00 0.00 0.00 68 1031.0
20201029054525 33 166 0.0 2.0 0.00 0.00 0.00 69 1031.0
20201029054410 33 163 1.0 2.0 0.00 0.00 0.00 69 1031.0
20201029054314 33 164 1.0 2.0 0.00 0.00 0.00 69 1031.0
20201029054212 33 160 1.0 2.0 0.00 0.00 0.00 69 1031.0
20201029054110 33 153 0.0 2.0 0.00 0.00 0.00 69 1031.0
20201029054023 33 149 0.0 2.0 0.00 0.00 0.00 69 1031.0
20201029053910 33 139 0.0 2.0 0.00 0.00 0.00 69 1031.0
20201029053810 33 113 1.0 2.0 0.00 0.00 0.00 70 1031.0
20201029053710 33 92 1.0 2.0 0.00 0.00 0.00 70 1031.0
20201029053610 33 62 1.0 2.0 0.00 0.00 0.00 71 1031.0
20201029053514 33 53 2.0 2.0 0.00 0.00 0.00 71 1031.0
20201029053410 33 48 1.0 2.0 0.00 0.00 0.00 70 1031.0
20201029053318 33 42 0.0 2.0 0.00 0.00 0.00 71 1031.0
20201029053219 33 33 0.0 2.0 0.00 0.00 0.00 71 1031.0
20201029053109 33 33 0.0 2.0 0.00 0.00 0.00 71 1031.0
20201029053028 33 33 1.0 2.0 0.00 0.00 0.00 71 1031.0
20201029052910 33 33 1.0 2.0 0.00 0.00 0.00 72 1031.0
20201029052812 33 27 2.0 2.0 0.00 0.00 0.00 73 1031.0
20201029052716 33 18 1.0 2.0 0.00 0.00 0.00 73 1031.0
20201029052612 33 333 0.0 2.0 0.00 0.00 0.00 73 1031.0
20201029052511 33 245 0.0 2.0 0.00 0.00 0.00 74 1031.0
20201029052419 33 225 0.0 2.0 0.00 0.00 0.00 75 1031.0
20201029052314 33 230 0.0 2.0 0.00 0.00 0.00 75 1031.0
20201029052213 32 291 0.0 2.0 0.00 0.00 0.00 75 1031.0
20201029052119 32 322 0.0 2.0 0.00 0.00 0.00 75 1031.0
20201029052022 32 322 0.0 2.0 0.00 0.00 0.00 75 1031.0
20201029051912 32 320 0.0 2.0 0.00 0.00 0.00 75 1031.0
20201029051810 32 309 0.0 2.0 0.00 0.00 0.00 75 1033.0
20201029051710 32 302 0.0 3.0 0.00 0.00 0.00 75 1033.0
20201029051610 32 308 1.0 3.0 0.00 0.00 0.00 75 1033.0
20201029051526 32 336 1.0 3.0 0.00 0.00 0.00 75 1033.0
20201029051413 32 360 2.0 3.0 0.00 0.00 0.00 75 1033.0
20201029051316 32 3 2.0 3.0 0.00 0.00 0.00 76 1033.0
20201029051211 32 357 1.0 3.0 0.00 0.00 0.00 77 1033.0
20201029051110 32 355 0.0 3.0 0.00 0.00 0.00 77 1033.0
20201029051018 32 351 1.0 3.0 0.00 0.00 0.00 77 1033.0
20201029050916 32 8 1.0 3.0 0.00 0.00 0.00 77 1033.0
20201029050812 32 24 2.0 3.0 0.00 0.00 0.00 76 1033.0
20201029050714 31 34 2.0 3.0 0.00 0.00 0.00 76 1033.0
20201029050611 31 38 2.0 3.0 0.00 0.00 0.00 76 1033.0
20201029050514 31 30 2.0 3.0 0.00 0.00 0.00 77 1033.0
20201029050411 32 12 2.0 3.0 0.00 0.00 0.00 78 1033.0
20201029050310 32 25 1.0 3.0 0.00 0.00 0.00 78 1032.0
20201029050212 31 59 1.0 3.0 0.00 0.00 0.00 78 1032.0
20201029050110 31 49 1.0 3.0 0.00 0.00 0.00 78 1032.0
20201029050023 31 47 2.0 3.0 0.00 0.00 0.00 78 1032.0
20201029045913 31 45 1.0 3.0 0.00 0.00 0.00 78 1032.0
20201029045811 31 59 1.0 3.0 0.00 0.00 0.00 79 1032.0
20201029045715 31 65 1.0 3.0 0.00 0.00 0.00 79 1032.0
20201029045611 31 76 1.0 3.0 0.00 0.00 0.00 79 1032.0
20201029045527 31 91 1.0 3.0 0.00 0.00 0.00 79 1032.0
20201029045410 31 95 1.0 3.0 0.00 0.00 0.00 80 1032.0
20201029045314 31 92 2.0 3.0 0.00 0.00 0.00 80 1032.0
20201029045214 31 93 1.0 3.0 0.00 0.00 0.00 80 1032.0
20201029045112 31 92 1.0 3.0 0.00 0.00 0.00 80 1032.0
20201029045012 31 78 2.0 4.0 0.00 0.00 0.00 80 1032.0
20201029044910 31 73 1.0 4.0 0.00 0.00 0.00 80 1032.0
20201029044810 31 65 1.0 4.0 0.00 0.00 0.00 80 1032.0
20201029044713 31 68 1.0 4.0 0.00 0.00 0.00 80 1032.0
20201029044610 31 61 1.0 4.0 0.00 0.00 0.00 79 1032.0
20201029044525 31 62 1.0 4.0 0.00 0.00 0.00 79 1032.0
20201029044411 31 60 1.0 4.0 0.00 0.00 0.00 79 1032.0
20201029044312 30 58 2.0 4.0 0.00 0.00 0.00 79 1032.0
20201029044211 30 54 2.0 4.0 0.00 0.00 0.00 79 1032.0
20201029044113 30 53 3.0 4.0 0.00 0.00 0.00 79 1032.0
20201029044024 30 54 4.0 4.0 0.00 0.00 0.00 79 1032.0
20201029043910 30 53 2.0 4.0 0.00 0.00 0.00 79 1032.0
20201029043810 30 54 4.0 4.0 0.00 0.00 0.00 80 1032.0
20201029043719 30 50 2.0 4.0 0.00 0.00 0.00 80 1032.0
20201029043612 30 59 2.0 3.0 0.00 0.00 0.00 80 1032.0
20201029043522 30 64 2.0 3.0 0.00 0.00 0.00 80 1032.0
20201029043413 30 68 2.0 3.0 0.00 0.00 0.00 80 1032.0
20201029043314 30 73 2.0 3.0 0.00 0.00 0.00 80 1032.0
20201029043210 30 77 1.0 4.0 0.00 0.00 0.00 80 1032.0
20201029043110 30 74 1.0 4.0 0.00 0.00 0.00 80 1032.0
20201029043021 30 73 2.0 4.0 0.00 0.00 0.00 80 1032.0
20201029042911 30 70 1.0 4.0 0.00 0.00 0.00 80 1032.0
20201029042810 30 67 1.0 4.0 0.00 0.00 0.00 80 1032.0
20201029042712 30 64 1.0 4.0 0.00 0.00 0.00 80 1032.0
20201029042613 30 62 1.0 4.0 0.00 0.00 0.00 81 1032.0
20201029042513 30 61 1.0 4.0 0.00 0.00 0.00 81 1032.0
20201029042412 30 57 2.0 4.0 0.00 0.00 0.00 81 1032.0
20201029042311 30 56 2.0 4.0 0.00 0.00 0.00 81 1032.0
20201029042210 30 56 2.0 4.0 0.00 0.00 0.00 81 1032.0
20201029042114 30 57 2.0 4.0 0.00 0.00 0.00 81 1032.0
20201029042018 30 55 3.0 4.0 0.00 0.00 0.00 81 1032.0
20201029041928 30 57 2.0 4.0 0.00 0.00 0.00 82 1032.0
20201029041812 30 60 2.0 4.0 0.00 0.00 0.00 82 1031.0
20201029041713 30 62 1.0 4.0 0.00 0.00 0.00 82 1031.0
20201029041611 30 64 2.0 4.0 0.00 0.00 0.00 82 1031.0
20201029041521 30 63 3.0 4.0 0.00 0.00 0.00 82 1031.0
20201029041409 30 70 3.0 4.0 0.00 0.00 0.00 82 1031.0
20201029041310 30 76 2.0 3.0 0.00 0.00 0.00 82 1031.0
20201029041216 30 76 1.0 4.0 0.00 0.00 0.00 82 1031.0
20201029041110 30 77 1.0 4.0 0.00 0.00 0.00 82 1031.0
20201029041042 30 73 1.0 4.0 0.00 0.00 0.00 82 1031.0
20201029040909 30 73 1.0 4.0 0.00 0.00 0.00 82 1031.0
20201029040814 30 70 1.0 4.0 0.00 0.00 0.00 82 1031.0
20201029040710 30 66 1.0 4.0 0.00 0.00 0.00 82 1031.0
20201029040614 30 57 1.0 4.0 0.00 0.00 0.00 82 1031.0
20201029040514 30 54 1.0 4.0 0.00 0.00 0.00 83 1031.0
20201029040414 30 51 2.0 4.0 0.00 0.00 0.00 83 1031.0
20201029040313 30 51 2.0 4.0 0.00 0.00 0.00 83 1032.0
20201029040211 30 48 1.0 3.0 0.00 0.00 0.00 82 1032.0
20201029040114 30 45 1.0 2.0 0.00 0.00 0.00 83 1032.0
20201029040024 30 43 0.0 2.0 0.00 0.00 0.00 83 1032.0
20201029035911 30 43 0.0 2.0 0.00 0.00 0.00 83 1032.0
20201029035813 30 43 1.0 2.0 0.00 0.00 0.00 83 1032.0
20201029035709 30 42 1.0 2.0 0.00 0.00 0.00 82 1032.0
20201029035610 30 41 1.0 2.0 0.00 0.00 0.00 82 1032.0
20201029035525 30 38 1.0 2.0 0.00 0.00 0.00 82 1032.0
20201029035410 30 38 1.0 2.0 0.00 0.00 0.00 82 1032.0
20201029035310 30 30 1.0 2.0 0.00 0.00 0.00 82 1032.0
20201029035212 30 21 1.0 2.0 0.00 0.00 0.00 82 1032.0
20201029035119 30 12 0.0 2.0 0.00 0.00 0.00 82 1032.0
20201029035010 30 360 0.0 1.0 0.00 0.00 0.00 82 1032.0
20201029034910 30 360 0.0 2.0 0.00 0.00 0.00 82 1032.0
20201029034810 30 360 0.0 2.0 0.00 0.00 0.00 82 1032.0
20201029034710 30 360 0.0 2.0 0.00 0.00 0.00 82 1032.0
20201029034612 30 360 0.0 2.0 0.00 0.00 0.00 82 1032.0
20201029034521 30 4 1.0 2.0 0.00 0.00 0.00 82 1032.0
20201029034411 30 4 0.0 2.0 0.00 0.00 0.00 82 1032.0
20201029034310 30 5 0.0 2.0 0.00 0.00 0.00 82 1032.0
20201029034212 30 8 0.0 2.0 0.00 0.00 0.00 82 1032.0
20201029034115 30 24 1.0 2.0 0.00 0.00 0.00 82 1032.0
20201029034010 30 40 1.0 2.0 0.00 0.00 0.00 82 1032.0
20201029033911 30 61 0.0 2.0 0.00 0.00 0.00 81 1032.0
20201029033810 30 70 1.0 2.0 0.00 0.00 0.00 81 1032.0
20201029033710 30 72 0.0 2.0 0.00 0.00 0.00 81 1032.0
20201029033612 30 80 0.0 2.0 0.00 0.00 0.00 81 1032.0
20201029033510 30 76 0.0 2.0 0.00 0.00 0.00 81 1032.0
20201029033409 30 76 0.0 2.0 0.00 0.00 0.00 82 1032.0
20201029033309 30 78 1.0 2.0 0.00 0.00 0.00 82 1032.0
20201029033211 30 78 1.0 2.0 0.00 0.00 0.00 82 1032.0
20201029033116 30 78 1.0 2.0 0.00 0.00 0.00 82 1032.0
20201029033026 30 75 0.0 2.0 0.00 0.00 0.00 82 1032.0
20201029032912 30 73 0.0 2.0 0.00 0.00 0.00 82 1032.0
20201029032810 30 74 2.0 2.0 0.00 0.00 0.00 82 1032.0
20201029032712 30 77 1.0 2.0 0.00 0.00 0.00 81 1032.0
20201029032611 30 90 0.0 2.0 0.00 0.00 0.00 81 1032.0
20201029032510 30 90 1.0 2.0 0.00 0.00 0.00 81 1032.0
20201029032417 30 90 0.0 2.0 0.00 0.00 0.00 81 1032.0
20201029032311 30 90 1.0 2.0 0.00 0.00 0.00 81 1032.0
20201029032210 30 90 0.0 2.0 0.00 0.00 0.00 80 1032.0
20201029032110 30 90 0.0 1.0 0.00 0.00 0.00 80 1032.0
20201029032017 30 90 0.0 1.0 0.00 0.00 0.00 80 1032.0
20201029031911 30 90 0.0 1.0 0.00 0.00 0.00 80 1032.0
20201029031813 30 90 0.0 1.0 0.00 0.00 0.00 80 1031.0
20201029031710 30 90 0.0 1.0 0.00 0.00 0.00 80 1031.0
20201029031616 30 90 0.0 2.0 0.00 0.00 0.00 80 1031.0
20201029031525 30 90 0.0 2.0 0.00 0.00 0.00 80 1031.0
20201029031412 30 90 0.0 2.0 0.00 0.00 0.00 80 1031.0
20201029031314 30 90 1.0 3.0 0.00 0.00 0.00 81 1031.0
20201029031210 30 90 1.0 3.0 0.00 0.00 0.00 80 1031.0
20201029031112 30 90 0.0 3.0 0.00 0.00 0.00 81 1031.0
20201029031023 30 90 0.0 3.0 0.00 0.00 0.00 81 1031.0
20201029030914 30 90 0.0 3.0 0.00 0.00 0.00 81 1031.0
20201029030811 30 90 1.0 3.0 0.00 0.00 0.00 81 1031.0
20201029030710 30 90 1.0 3.0 0.00 0.00 0.00 81 1031.0
20201029030610 30 85 1.0 3.0 0.00 0.00 0.00 81 1031.0
20201029030513 30 83 1.0 3.0 0.00 0.00 0.00 81 1031.0
20201029030410 30 80 1.0 3.0 0.00 0.00 0.00 81 1031.0
20201029030310 30 76 0.0 2.0 0.00 0.00 0.00 81 1032.0
20201029030210 30 69 0.0 2.0 0.00 0.00 0.00 81 1032.0
20201029030122 30 59 0.0 2.0 0.00 0.00 0.00 81 1032.0
20201029030024 30 52 1.0 2.0 0.00 0.00 0.00 81 1032.0
20201029025915 30 47 0.0 2.0 0.00 0.00 0.00 81 1032.0
20201029025811 30 342 1.0 2.0 0.00 0.00 0.00 82 1032.0
20201029025710 30 315 1.0 2.0 0.00 0.00 0.00 82 1032.0
20201029025618 30 277 0.0 2.0 0.00 0.00 0.00 82 1032.0
20201029025527 30 266 0.0 1.0 0.00 0.00 0.00 82 1032.0
20201029025411 30 257 0.0 1.0 0.00 0.00 0.00 82 1032.0
20201029025311 30 244 0.0 1.0 0.00 0.00 0.00 82 1032.0
20201029025209 30 242 0.0 2.0 0.00 0.00 0.00 82 1032.0
20201029025111 30 111 0.0 2.0 0.00 0.00 0.00 82 1032.0
20201029025037 30 98 0.0 2.0 0.00 0.00 0.00 82 1032.0
20201029024911 30 70 0.0 2.0 0.00 0.00 0.00 82 1032.0
20201029024813 30 67 0.0 2.0 0.00 0.00 0.00 82 1032.0
20201029024712 30 68 0.0 2.0 0.00 0.00 0.00 82 1032.0
20201029024612 30 68 0.0 2.0 0.00 0.00 0.00 82 1032.0
20201029024517 30 67 1.0 2.0 0.00 0.00 0.00 82 1032.0
20201029024419 30 65 1.0 2.0 0.00 0.00 0.00 82 1032.0
20201029024311 30 57 1.0 2.0 0.00 0.00 0.00 82 1032.0
20201029024212 30 54 0.0 2.0 0.00 0.00 0.00 82 1032.0
20201029024115 30 39 1.0 2.0 0.00 0.00 0.00 82 1032.0
20201029024009 30 30 0.0 2.0 0.00 0.00 0.00 82 1032.0
20201029023913 30 240 0.0 1.0 0.00 0.00 0.00 81 1032.0
20201029023818 30 225 0.0 1.0 0.00 0.00 0.00 81 1032.0
20201029023712 30 225 0.0 1.0 0.00 0.00 0.00 81 1032.0
20201029023611 30 225 0.0 1.0 0.00 0.00 0.00 81 1032.0
20201029023522 30 225 0.0 1.0 0.00 0.00 0.00 81 1032.0
20201029023414 30 225 0.0 1.0 0.00 0.00 0.00 81 1032.0
20201029023310 30 225 0.0 1.0 0.00 0.00 0.00 81 1032.0
20201029023210 30 225 0.0 1.0 0.00 0.00 0.00 80 1032.0
20201029023112 30 225 0.0 1.0 0.00 0.00 0.00 80 1032.0
20201029023022 30 225 0.0 1.0 0.00 0.00 0.00 80 1032.0
20201029022912 30 225 0.0 1.0 0.00 0.00 0.00 80 1032.0
20201029022811 30 225 0.0 1.0 0.00 0.00 0.00 79 1032.0
20201029022710 30 225 1.0 1.0 0.00 0.00 0.00 79 1032.0
20201029022618 30 225 0.0 1.0 0.00 0.00 0.00 79 1032.0
20201029022512 30 225 0.0 2.0 0.00 0.00 0.00 79 1032.0
20201029022410 30 225 0.0 2.0 0.00 0.00 0.00 79 1032.0
20201029022309 31 213 0.0 2.0 0.00 0.00 0.00 79 1032.0
20201029022209 30 212 1.0 2.0 0.00 0.00 0.00 78 1032.0
20201029022110 30 211 1.0 2.0 0.00 0.00 0.00 78 1032.0
20201029022026 30 211 0.0 2.0 0.00 0.00 0.00 78 1032.0
20201029021913 30 195 0.0 2.0 0.00 0.00 0.00 78 1032.0
20201029021813 31 179 0.0 2.0 0.00 0.00 0.00 78 1032.0
20201029021710 31 173 0.0 2.0 0.00 0.00 0.00 78 1032.0
20201029021612 31 152 1.0 2.0 0.00 0.00 0.00 77 1032.0
20201029021530 31 127 1.0 2.0 0.00 0.00 0.00 77 1032.0
20201029021410 31 119 0.0 2.0 0.00 0.00 0.00 77 1032.0
20201029021310 31 111 0.0 1.0 0.00 0.00 0.00 77 1032.0
20201029021247 31 111 1.0 1.0 0.00 0.00 0.00 77 1032.0
20201029021110 31 97 1.0 1.0 0.00 0.00 0.00 77 1032.0
20201029021016 31 79 1.0 1.0 0.00 0.00 0.00 77 1032.0
20201029020910 31 66 1.0 2.0 0.00 0.00 0.00 76 1032.0
20201029020812 31 51 0.0 2.0 0.00 0.00 0.00 76 1032.0
20201029020710 31 45 0.0 2.0 0.00 0.00 0.00 76 1032.0
20201029020609 31 45 0.0 2.0 0.00 0.00 0.00 76 1032.0
20201029020519 31 45 0.0 2.0 0.00 0.00 0.00 76 1032.0
20201029020412 31 45 0.0 2.0 0.00 0.00 0.00 76 1032.0
20201029020311 31 225 0.0 2.0 0.00 0.00 0.00 76 1031.0
20201029020211 31 225 0.0 2.0 0.00 0.00 0.00 76 1031.0
20201029020116 31 225 1.0 2.0 0.00 0.00 0.00 76 1031.0
20201029020029 31 222 0.0 2.0 0.00 0.00 0.00 76 1031.0
20201029015912 31 224 0.0 2.0 0.00 0.00 0.00 76 1031.0
20201029015810 31 224 0.0 2.0 0.00 0.00 0.00 76 1031.0
20201029015712 31 224 0.0 2.0 0.00 0.00 0.00 76 1031.0
20201029015617 31 224 0.0 2.0 0.00 0.00 0.00 75 1031.0
20201029015514 31 224 0.0 2.0 0.00 0.00 0.00 76 1031.0
20201029015409 31 224 0.0 2.0 0.00 0.00 0.00 76 1031.0
20201029015316 31 224 1.0 2.0 0.00 0.00 0.00 76 1031.0
20201029015210 31 224 1.0 2.0 0.00 0.00 0.00 75 1031.0
20201029015114 31 224 1.0 2.0 0.00 0.00 0.00 75 1031.0
20201029015010 31 226 0.0 1.0 0.00 0.00 0.00 75 1031.0
20201029014910 31 225 1.0 1.0 0.00 0.00 0.00 75 1031.0
20201029014811 31 225 1.0 1.0 0.00 0.00 0.00 75 1032.0
20201029014710 31 225 0.0 1.0 0.00 0.00 0.00 75 1032.0
20201029014610 31 225 0.0 1.0 0.00 0.00 0.00 75 1032.0
20201029014518 31 225 0.0 1.0 0.00 0.00 0.00 75 1032.0
20201029014419 31 225 1.0 1.0 0.00 0.00 0.00 74 1032.0
20201029014316 31 225 0.0 2.0 0.00 0.00 0.00 74 1032.0
20201029014210 31 225 0.0 2.0 0.00 0.00 0.00 74 1032.0
20201029014112 31 225 0.0 2.0 0.00 0.00 0.00 74 1032.0
20201029014018 31 225 0.0 2.0 0.00 0.00 0.00 74 1032.0
20201029013912 31 225 0.0 2.0 0.00 0.00 0.00 74 1032.0
20201029013814 31 225 0.0 2.0 0.00 0.00 0.00 74 1032.0
20201029013711 31 225 0.0 2.0 0.00 0.00 0.00 74 1032.0
20201029013611 31 225 1.0 2.0 0.00 0.00 0.00 74 1032.0
20201029013513 31 225 1.0 2.0 0.00 0.00 0.00 74 1032.0
20201029013412 31 225 1.0 2.0 0.00 0.00 0.00 74 1032.0
20201029013319 31 225 0.0 2.0 0.00 0.00 0.00 74 1032.0
20201029013213 31 225 0.0 2.0 0.00 0.00 0.00 74 1032.0
20201029013110 31 225 1.0 2.0 0.00 0.00 0.00 74 1032.0
20201029013022 31 216 1.0 4.0 0.00 0.00 0.00 74 1032.0
20201029012928 31 199 1.0 4.0 0.00 0.00 0.00 74 1032.0
20201029012817 31 195 0.0 4.0 0.00 0.00 0.00 74 1032.0
20201029012720 31 188 0.0 4.0 0.00 0.00 0.00 74 1032.0
20201029012615 31 184 0.0 4.0 0.00 0.00 0.00 74 1032.0
20201029012539 31 171 1.0 4.0 0.00 0.00 0.00 74 1032.0
20201029012421 31 170 1.0 4.0 0.00 0.00 0.00 74 1032.0
20201029012317 31 170 0.0 4.0 0.00 0.00 0.00 75 1032.0
20201029012213 31 170 1.0 4.0 0.00 0.00 0.00 75 1032.0
20201029012111 31 163 3.0 5.0 0.00 0.00 0.00 75 1032.0
20201029012011 31 159 3.0 5.0 0.00 0.00 0.00 75 1032.0
20201029011909 31 158 2.0 5.0 0.00 0.00 0.00 75 1032.0
20201029011809 31 158 3.0 5.0 0.00 0.00 0.00 76 1032.0
20201029011712 31 158 4.0 5.0 0.00 0.00 0.00 76 1032.0
20201029011621 31 161 4.0 5.0 0.00 0.00 0.00 76 1032.0
20201029011546 31 167 2.0 5.0 0.00 0.00 0.00 76 1032.0
20201029011416 31 169 2.0 5.0 0.00 0.00 0.00 76 1032.0
20201029011317 31 162 4.0 5.0 0.00 0.00 0.00 76 1032.0
20201029011209 31 160 3.0 5.0 0.00 0.00 0.00 76 1032.0
20201029011111 31 169 3.0 4.0 0.00 0.00 0.00 76 1032.0
20201029011026 31 172 2.0 6.0 0.00 0.00 0.00 76 1032.0
20201029010916 31 181 3.0 6.0 0.00 0.00 0.00 76 1032.0
20201029010812 31 185 1.0 6.0 0.00 0.00 0.00 76 1032.0
20201029010713 31 187 1.0 6.0 0.00 0.00 0.00 76 1032.0
20201029010610 31 188 1.0 6.0 0.00 0.00 0.00 76 1032.0
20201029010536 31 189 2.0 6.0 0.00 0.00 0.00 76 1032.0
20201029010413 31 192 3.0 6.0 0.00 0.00 0.00 76 1032.0
20201029010310 31 199 2.0 6.0 0.00 0.00 0.00 76 1032.0
20201029010216 31 207 4.0 6.0 0.00 0.00 0.00 76 1032.0
20201029010121 31 214 2.0 6.0 0.00 0.00 0.00 76 1032.0
20201029010054 31 223 1.0 3.0 0.00 0.00 0.00 76 1032.0
20201029005913 31 220 1.0 2.0 0.00 0.00 0.00 76 1032.0
20201029005820 31 206 1.0 4.0 0.00 0.00 0.00 76 1032.0
20201029005716 31 194 1.0 4.0 0.00 0.00 0.00 76 1032.0
20201029005612 31 188 1.0 4.0 0.00 0.00 0.00 76 1032.0
20201029005521 31 184 1.0 4.0 0.00 0.00 0.00 76 1032.0
20201029005412 31 179 1.0 4.0 0.00 0.00 0.00 76 1032.0
20201029005312 31 174 0.0 4.0 0.00 0.00 0.00 76 1032.0
20201029005211 31 170 0.0 4.0 0.00 0.00 0.00 75 1032.0
20201029005111 31 167 1.0 4.0 0.00 0.00 0.00 75 1032.0
20201029005025 31 164 1.0 4.0 0.00 0.00 0.00 75 1032.0
20201029004919 31 163 3.0 4.0 0.00 0.00 0.00 75 1032.0
20201029004816 31 159 3.0 4.0 0.00 0.00 0.00 74 1032.0
20201029004722 31 167 2.0 4.0 0.00 0.00 0.00 74 1032.0
20201029004610 31 137 0.0 4.0 0.00 0.00 0.00 73 1032.0
20201029004518 31 122 0.0 2.0 0.00 0.00 0.00 73 1032.0
20201029004434 31 113 0.0 2.0 0.00 0.00 0.00 73 1032.0
20201029004311 31 112 0.0 2.0 0.00 0.00 0.00 73 1032.0
20201029004212 31 110 0.0 2.0 0.00 0.00 0.00 73 1032.0
20201029004112 31 109 0.0 2.0 0.00 0.00 0.00 73 1032.0
20201029004032 32 107 0.0 2.0 0.00 0.00 0.00 73 1032.0
20201029003912 32 105 0.0 2.0 0.00 0.00 0.00 73 1032.0
20201029003814 32 96 0.0 2.0 0.00 0.00 0.00 73 1032.0
20201029003710 32 92 2.0 2.0 0.00 0.00 0.00 72 1032.0
20201029003617 31 94 0.0 3.0 0.00 0.00 0.00 72 1032.0
20201029003526 31 101 0.0 3.0 0.00 0.00 0.00 72 1032.0
20201029003410 31 123 0.0 3.0 0.00 0.00 0.00 72 1032.0
20201029003328 32 123 0.0 3.0 0.00 0.00 0.00 72 1032.0
20201029003307 32 142 0.0 3.0 0.00 0.00 0.00 72 1032.0
20201029003135 32 142 0.0 3.0 0.00 0.00 0.00 72 1032.0
20201029003029 32 141 1.0 3.0 0.00 0.00 0.00 72 1032.0
20201029002912 32 150 1.0 3.0 0.00 0.00 0.00 71 1032.0
20201029002810 32 169 2.0 3.0 0.00 0.00 0.00 71 1032.0
20201029002746 32 180 1.0 3.0 0.00 0.00 0.00 71 1032.0
20201029002611 32 180 1.0 2.0 0.00 0.00 0.00 71 1032.0
20201029002518 32 154 0.0 2.0 0.00 0.00 0.00 71 1032.0
20201029002415 32 132 0.0 2.0 0.00 0.00 0.00 71 1032.0
20201029002317 32 82 0.0 2.0 0.00 0.00 0.00 71 1032.0
20201029002210 32 78 0.0 2.0 0.00 0.00 0.00 71 1032.0
20201029002135 32 67 0.0 3.0 0.00 0.00 0.00 71 1032.0
20201029002026 32 55 1.0 3.0 0.00 0.00 0.00 71 1032.0
20201029001917 32 38 1.0 3.0 0.00 0.00 0.00 70 1032.0
20201029001812 31 29 1.0 3.0 0.00 0.00 0.00 70 1032.0
20201029001732 32 316 1.0 3.0 0.00 0.00 0.00 70 1032.0
20201029001610 32 304 1.0 3.0 0.00 0.00 0.00 70 1032.0
20201029001521 31 305 1.0 3.0 0.00 0.00 0.00 70 1032.0
20201029001422 31 294 2.0 3.0 0.00 0.00 0.00 70 1032.0
20201029001319 31 241 2.0 3.0 0.00 0.00 0.00 71 1032.0
20201029001218 31 240 1.0 3.0 0.00 0.00 0.00 71 1032.0
20201029001120 31 236 1.0 3.0 0.00 0.00 0.00 71 1032.0
20201029001030 31 216 1.0 3.0 0.00 0.00 0.00 71 1032.0
20201029000909 31 191 2.0 3.0 0.00 0.00 0.00 71 1032.0
20201029000809 31 178 1.0 3.0 0.00 0.00 0.00 71 1032.0
20201029000723 31 151 0.0 3.0 0.00 0.00 0.00 71 1032.0
20201029000610 31 115 1.0 3.0 0.00 0.00 0.00 71 1032.0
20201029000520 31 105 1.0 3.0 0.00 0.00 0.00 71 1032.0
20201029000452 31 105 2.0 3.0 0.00 0.00 0.00 71 1032.0
20201029000316 31 90 2.0 3.0 0.00 0.00 0.00 71 1033.0
20201029000217 31 82 1.0 3.0 0.00 0.00 0.00 71 1033.0
20201029000120 31 80 1.0 3.0 0.00 0.00 0.00 71 1033.0
20201029000024 31 72 1.0 3.0 0.00 0.00 0.00 72 1033.0
20201028235910 31 56 1.0 3.0 0.00 0.00 0.00 72 1033.0
20201028235811 31 46 2.0 3.0 0.00 0.00 0.00 72 1033.0
20201028235710 31 32 2.0 3.0 0.00 0.00 0.00 72 1033.0
20201028235619 31 19 1.0 3.0 0.00 0.00 0.00 72 1033.0
20201028235520 31 1 1.0 3.0 0.00 0.00 0.00 72 1033.0
20201028235411 31 1 1.0 3.0 0.00 0.00 0.00 72 1033.0
20201028235329 31 1 1.0 3.0 0.00 0.00 0.00 72 1033.0
20201028235218 31 349 0.0 1.0 0.00 0.00 0.00 72 1033.0
20201028235110 31 347 0.0 1.0 0.00 0.00 0.00 72 1033.0
20201028235021 31 349 1.0 1.0 0.00 0.00 0.00 72 1033.0
20201028234910 31 346 1.0 1.0 0.00 0.00 0.00 72 1033.0
20201028234812 31 349 1.0 1.0 0.00 0.00 0.00 72 1033.0
20201028234717 31 353 0.0 1.0 0.00 0.00 0.00 72 1033.0
20201028234620 31 233 0.0 1.0 0.00 0.00 0.00 72 1033.0
20201028234539 31 176 0.0 2.0 0.00 0.00 0.00 72 1033.0
20201028234410 31 176 0.0 2.0 0.00 0.00 0.00 72 1033.0
20201028234317 31 176 0.0 2.0 0.00 0.00 0.00 72 1033.0
20201028234210 31 7 0.0 2.0 0.00 0.00 0.00 72 1033.0
20201028234111 31 328 0.0 2.0 0.00 0.00 0.00 72 1033.0
20201028234030 31 267 0.0 2.0 0.00 0.00 0.00 72 1033.0
20201028233912 31 284 0.0 2.0 0.00 0.00 0.00 72 1033.0
20201028233816 32 278 0.0 2.0 0.00 0.00 0.00 72 1033.0
20201028233710 32 263 1.0 2.0 0.00 0.00 0.00 72 1033.0
20201028233610 32 289 0.0 2.0 0.00 0.00 0.00 72 1033.0
20201028233520 32 284 0.0 1.0 0.00 0.00 0.00 72 1033.0
20201028233410 32 273 0.0 2.0 0.00 0.00 0.00 72 1033.0
20201028233310 32 256 1.0 2.0 0.00 0.00 0.00 72 1033.0
20201028233227 32 242 0.0 2.0 0.00 0.00 0.00 72 1033.0
20201028233124 32 224 0.0 2.0 0.00 0.00 0.00 72 1033.0
20201028233036 32 219 0.0 2.0 0.00 0.00 0.00 72 1033.0
20201028232917 32 203 0.0 4.0 0.00 0.00 0.00 71 1033.0
20201028232828 32 190 0.0 5.0 0.00 0.00 0.00 71 1033.0
20201028232714 32 180 0.0 5.0 0.00 0.00 0.00 71 1033.0
20201028232620 32 174 1.0 5.0 0.00 0.00 0.00 71 1033.0
20201028232511 32 167 0.0 5.0 0.00 0.00 0.00 71 1033.0
20201028232410 32 159 0.0 5.0 0.00 0.00 0.00 71 1033.0
20201028232311 32 155 1.0 5.0 0.00 0.00 0.00 71 1033.0
20201028232209 32 152 1.0 6.0 0.00 0.00 0.00 71 1033.0
20201028232113 32 149 1.0 6.0 0.00 0.00 0.00 71 1033.0
20201028232022 32 147 3.0 6.0 0.00 0.00 0.00 71 1033.0
20201028231915 32 144 4.0 6.0 0.00 0.00 0.00 71 1033.0
20201028231812 32 140 4.0 6.0 0.00 0.00 0.00 71 1033.0
20201028231721 32 140 3.0 6.0 0.00 0.00 0.00 71 1033.0
20201028231611 32 141 3.0 6.0 0.00 0.00 0.00 71 1033.0
20201028231521 32 141 4.0 6.0 0.00 0.00 0.00 71 1033.0
20201028231412 32 141 4.0 6.0 0.00 0.00 0.00 71 1033.0
20201028231310 32 143 5.0 6.0 0.00 0.00 0.00 71 1033.0
20201028231211 32 144 5.0 6.0 0.00 0.00 0.00 71 1033.0
20201028231127 32 146 5.0 6.0 0.00 0.00 0.00 71 1033.0
20201028231024 32 151 4.0 6.0 0.00 0.00 0.00 71 1033.0
20201028230921 32 156 3.0 6.0 0.00 0.00 0.00 71 1033.0
20201028230815 32 161 3.0 5.0 0.00 0.00 0.00 71 1033.0
20201028230710 32 162 3.0 5.0 0.00 0.00 0.00 71 1033.0
20201028230613 32 166 4.0 5.0 0.00 0.00 0.00 70 1033.0
20201028230522 32 170 3.0 5.0 0.00 0.00 0.00 70 1033.0
20201028230412 32 176 3.0 5.0 0.00 0.00 0.00 70 1033.0
20201028230309 32 181 3.0 5.0 0.00 0.00 0.00 70 1033.0
20201028230210 32 185 4.0 5.0 0.00 0.00 0.00 70 1033.0
20201028230115 32 191 3.0 5.0 0.00 0.00 0.00 70 1033.0
20201028230028 32 194 3.0 4.0 0.00 0.00 0.00 70 1033.0
20201028225914 32 197 3.0 4.0 0.00 0.00 0.00 70 1033.0
20201028225817 32 201 3.0 4.0 0.00 0.00 0.00 70 1033.0
20201028225718 32 206 2.0 4.0 0.00 0.00 0.00 70 1033.0
20201028225613 32 214 1.0 3.0 0.00 0.00 0.00 70 1033.0
20201028225512 32 220 1.0 3.0 0.00 0.00 0.00 70 1033.0
20201028225415 32 217 1.0 3.0 0.00 0.00 0.00 70 1033.0
20201028225311 32 212 1.0 3.0 0.00 0.00 0.00 70 1033.0
20201028225209 32 197 1.0 3.0 0.00 0.00 0.00 70 1033.0
20201028225126 32 183 0.0 3.0 0.00 0.00 0.00 70 1033.0
20201028225012 32 177 0.0 5.0 0.00 0.00 0.00 70 1033.0
20201028224924 32 172 1.0 5.0 0.00 0.00 0.00 70 1033.0
20201028224812 32 167 1.0 5.0 0.00 0.00 0.00 70 1033.0
20201028224712 32 163 0.0 5.0 0.00 0.00 0.00 70 1033.0
20201028224613 32 158 0.0 5.0 0.00 0.00 0.00 70 1033.0
20201028224519 32 154 1.0 5.0 0.00 0.00 0.00 70 1033.0
20201028224411 32 150 1.0 5.0 0.00 0.00 0.00 70 1033.0
20201028224318 32 152 2.0 5.0 0.00 0.00 0.00 70 1033.0
20201028224214 32 158 2.0 5.0 0.00 0.00 0.00 70 1033.0
20201028224112 32 161 3.0 5.0 0.00 0.00 0.00 70 1033.0
20201028224010 32 157 2.0 4.0 0.00 0.00 0.00 70 1033.0
20201028223918 32 158 2.0 4.0 0.00 0.00 0.00 70 1033.0
20201028223811 32 162 3.0 4.0 0.00 0.00 0.00 70 1033.0
20201028223722 32 163 3.0 4.0 0.00 0.00 0.00 70 1033.0
20201028223612 32 167 3.0 4.0 0.00 0.00 0.00 70 1033.0
20201028223515 32 168 3.0 6.0 0.00 0.00 0.00 70 1033.0
20201028223415 32 170 3.0 6.0 0.00 0.00 0.00 70 1033.0
20201028223312 33 165 3.0 6.0 0.00 0.00 0.00 70 1033.0
20201028223211 33 165 3.0 6.0 0.00 0.00 0.00 70 1033.0
20201028223116 33 161 3.0 6.0 0.00 0.00 0.00 69 1033.0
20201028223040 33 162 2.0 6.0 0.00 0.00 0.00 69 1033.0
20201028222912 33 164 2.0 6.0 0.00 0.00 0.00 69 1033.0
20201028222811 33 164 1.0 6.0 0.00 0.00 0.00 69 1033.0
20201028222715 33 161 3.0 6.0 0.00 0.00 0.00 69 1033.0
20201028222610 33 160 4.0 6.0 0.00 0.00 0.00 69 1033.0
20201028222519 33 159 4.0 6.0 0.00 0.00 0.00 69 1033.0
20201028222409 33 160 5.0 6.0 0.00 0.00 0.00 69 1033.0
20201028222312 33 161 3.0 6.0 0.00 0.00 0.00 69 1033.0
20201028222211 33 160 4.0 5.0 0.00 0.00 0.00 69 1033.0
20201028222115 33 161 3.0 5.0 0.00 0.00 0.00 69 1033.0
20201028222019 33 159 2.0 5.0 0.00 0.00 0.00 69 1033.0
20201028221938 33 152 2.0 5.0 0.00 0.00 0.00 69 1033.0
20201028221817 33 151 3.0 6.0 0.00 0.00 0.00 69 1033.0
20201028221711 33 154 2.0 6.0 0.00 0.00 0.00 69 1033.0
20201028221618 33 151 4.0 6.0 0.00 0.00 0.00 69 1033.0
20201028221530 33 149 4.0 6.0 0.00 0.00 0.00 69 1033.0
20201028221416 33 146 3.0 6.0 0.00 0.00 0.00 69 1033.0
20201028221316 33 147 2.0 6.0 0.00 0.00 0.00 69 1033.0
20201028221216 33 142 3.0 6.0 0.00 0.00 0.00 69 1033.0
20201028221115 33 142 3.0 6.0 0.00 0.00 0.00 69 1033.0
20201028221025 33 143 3.0 6.0 0.00 0.00 0.00 69 1033.0
20201028220910 33 144 4.0 6.0 0.00 0.00 0.00 69 1033.0
20201028220812 33 143 5.0 6.0 0.00 0.00 0.00 69 1033.0
20201028220713 33 143 3.0 6.0 0.00 0.00 0.00 69 1033.0
20201028220615 33 146 4.0 6.0 0.00 0.00 0.00 69 1033.0
20201028220513 33 145 3.0 6.0 0.00 0.00 0.00 69 1033.0
20201028220411 33 152 3.0 6.0 0.00 0.00 0.00 69 1033.0
20201028220318 33 153 4.0 6.0 0.00 0.00 0.00 69 1033.0
20201028220221 33 153 4.0 6.0 0.00 0.00 0.00 69 1033.0
20201028220112 33 158 2.0 6.0 0.00 0.00 0.00 69 1033.0
20201028220026 33 158 3.0 6.0 0.00 0.00 0.00 69 1033.0
20201028215910 33 157 3.0 8.0 0.00 0.00 0.00 69 1033.0
20201028215819 33 161 3.0 8.0 0.00 0.00 0.00 69 1033.0
20201028215710 33 158 3.0 8.0 0.00 0.00 0.00 69 1033.0
20201028215610 33 155 3.0 8.0 0.00 0.00 0.00 69 1033.0
20201028215522 33 158 3.0 8.0 0.00 0.00 0.00 69 1033.0
20201028215410 33 157 4.0 8.0 0.00 0.00 0.00 69 1033.0
20201028215311 33 158 5.0 8.0 0.00 0.00 0.00 69 1033.0
20201028215217 33 162 4.0 8.0 0.00 0.00 0.00 69 1033.0
20201028215117 33 164 6.0 8.0 0.00 0.00 0.00 69 1033.0
20201028215020 33 168 6.0 8.0 0.00 0.00 0.00 69 1033.0
20201028214911 33 176 4.0 6.0 0.00 0.00 0.00 69 1033.0
20201028214811 33 175 2.0 6.0 0.00 0.00 0.00 69 1033.0
20201028214710 33 182 3.0 4.0 0.00 0.00 0.00 69 1033.0
20201028214610 33 180 1.0 4.0 0.00 0.00 0.00 68 1033.0
20201028214525 33 176 2.0 4.0 0.00 0.00 0.00 68 1033.0
20201028214411 33 176 3.0 4.0 0.00 0.00 0.00 68 1033.0
20201028214309 33 173 2.0 5.0 0.00 0.00 0.00 68 1033.0
20201028214214 33 173 2.0 5.0 0.00 0.00 0.00 68 1033.0
20201028214113 33 173 1.0 5.0 0.00 0.00 0.00 68 1033.0
20201028214012 33 169 1.0 6.0 0.00 0.00 0.00 68 1033.0
20201028213920 33 163 2.0 6.0 0.00 0.00 0.00 68 1033.0
20201028213811 33 164 3.0 6.0 0.00 0.00 0.00 67 1033.0
20201028213709 33 160 4.0 6.0 0.00 0.00 0.00 67 1033.0
20201028213609 33 157 2.0 8.0 0.00 0.00 0.00 67 1033.0
20201028213533 33 162 3.0 8.0 0.00 0.00 0.00 67 1033.0
20201028213417 34 156 4.0 8.0 0.00 0.00 0.00 67 1033.0
20201028213315 34 156 3.0 8.0 0.00 0.00 0.00 67 1033.0
20201028213210 34 152 4.0 8.0 0.00 0.00 0.00 67 1033.0
20201028213114 34 147 5.0 8.0 0.00 0.00 0.00 67 1033.0
20201028213020 34 147 6.0 8.0 0.00 0.00 0.00 67 1033.0
20201028212922 34 147 6.0 8.0 0.00 0.00 0.00 67 1033.0
20201028212810 34 145 6.0 8.0 0.00 0.00 0.00 67 1033.0
20201028212710 34 148 4.0 8.0 0.00 0.00 0.00 67 1033.0
20201028212611 34 156 5.0 6.0 0.00 0.00 0.00 67 1033.0
20201028212528 34 154 3.0 6.0 0.00 0.00 0.00 67 1033.0
20201028212411 34 159 5.0 6.0 0.00 0.00 0.00 67 1033.0
20201028212314 34 163 4.0 6.0 0.00 0.00 0.00 66 1033.0
20201028212213 34 165 4.0 6.0 0.00 0.00 0.00 67 1033.0
20201028212113 34 171 4.0 6.0 0.00 0.00 0.00 66 1033.0
20201028212012 34 173 4.0 6.0 0.00 0.00 0.00 66 1033.0
20201028211910 34 176 5.0 6.0 0.00 0.00 0.00 66 1033.0
20201028211809 34 179 5.0 6.0 0.00 0.00 0.00 66 1033.0
20201028211710 34 179 5.0 6.0 0.00 0.00 0.00 66 1033.0
20201028211615 34 180 4.0 6.0 0.00 0.00 0.00 66 1033.0
20201028211511 34 180 4.0 6.0 0.00 0.00 0.00 66 1033.0
20201028211411 34 178 4.0 6.0 0.00 0.00 0.00 65 1033.0
20201028211310 34 176 3.0 6.0 0.00 0.00 0.00 65 1033.0
20201028211213 34 177 4.0 6.0 0.00 0.00 0.00 65 1033.0
20201028211112 34 178 3.0 6.0 0.00 0.00 0.00 65 1033.0
20201028211016 34 178 2.0 6.0 0.00 0.00 0.00 65 1033.0
20201028210910 34 175 2.0 6.0 0.00 0.00 0.00 65 1033.0
20201028210818 34 174 2.0 7.0 0.00 0.00 0.00 64 1033.0
20201028210710 34 170 3.0 8.0 0.00 0.00 0.00 64 1033.0
20201028210615 34 173 4.0 8.0 0.00 0.00 0.00 64 1033.0
20201028210525 34 173 5.0 8.0 0.00 0.00 0.00 64 1033.0
20201028210411 34 173 2.0 13.0 0.00 0.00 0.00 64 1033.0
20201028210313 34 172 2.0 13.0 0.00 0.00 0.00 64 1033.0
20201028210210 34 170 1.0 13.0 0.00 0.00 0.00 64 1033.0
20201028210127 34 170 1.0 13.0 0.00 0.00 0.00 64 1033.0
20201028210042 34 171 4.0 13.0 0.00 0.00 0.00 63 1033.0
20201028205912 34 173 6.0 13.0 0.00 0.00 0.00 63 1033.0
20201028205852 34 173 4.0 13.0 0.00 0.00 0.00 63 1033.0
20201028205719 34 177 6.0 13.0 0.00 0.00 0.00 63 1033.0
20201028205609 34 176 10.0 13.0 0.00 0.00 0.00 63 1033.0
20201028205510 34 175 6.0 13.0 0.00 0.00 0.00 63 1033.0
20201028205410 34 174 4.0 8.0 0.00 0.00 0.00 63 1033.0
20201028205318 34 173 7.0 9.0 0.00 0.00 0.00 63 1033.0
20201028205219 34 174 4.0 9.0 0.00 0.00 0.00 63 1033.0
20201028205114 34 174 6.0 9.0 0.00 0.00 0.00 63 1033.0
20201028205019 34 167 4.0 9.0 0.00 0.00 0.00 63 1033.0
20201028204911 34 165 3.0 9.0 0.00 0.00 0.00 63 1033.0
20201028204810 34 162 3.0 9.0 0.00 0.00 0.00 62 1033.0
20201028204713 34 160 4.0 9.0 0.00 0.00 0.00 62 1033.0
20201028204613 34 158 7.0 9.0 0.00 0.00 0.00 62 1033.0
20201028204532 35 160 7.0 9.0 0.00 0.00 0.00 63 1033.0
20201028204410 35 162 4.0 9.0 0.00 0.00 0.00 63 1033.0
20201028204310 35 167 3.0 9.0 0.00 0.00 0.00 63 1033.0
20201028204217 35 164 4.0 9.0 0.00 0.00 0.00 63 1033.0
20201028204110 35 163 6.0 9.0 0.00 0.00 0.00 64 1033.0
20201028204010 35 169 4.0 9.0 0.00 0.00 0.00 64 1033.0
20201028203923 35 167 3.0 9.0 0.00 0.00 0.00 64 1033.0
20201028203811 35 169 2.0 8.0 0.00 0.00 0.00 63 1033.0
20201028203716 35 168 3.0 8.0 0.00 0.00 0.00 63 1033.0
20201028203610 35 167 3.0 8.0 0.00 0.00 0.00 63 1033.0
20201028203516 35 168 4.0 8.0 0.00 0.00 0.00 63 1033.0
20201028203419 35 164 6.0 10.0 0.00 0.00 0.00 63 1033.0
20201028203311 35 161 6.0 10.0 0.00 0.00 0.00 63 1033.0
20201028203209 35 165 5.0 10.0 0.00 0.00 0.00 63 1033.0
20201028203112 35 164 5.0 10.0 0.00 0.00 0.00 63 1033.0
20201028203023 35 162 6.0 10.0 0.00 0.00 0.00 63 1033.0
20201028202917 35 166 4.0 10.0 0.00 0.00 0.00 63 1033.0
20201028202810 35 169 5.0 10.0 0.00 0.00 0.00 63 1033.0
20201028202709 35 171 6.0 10.0 0.00 0.00 0.00 63 1033.0
20201028202609 35 168 8.0 10.0 0.00 0.00 0.00 63 1033.0
20201028202519 35 169 4.0 10.0 0.00 0.00 0.00 63 1033.0
20201028202409 35 170 4.0 9.0 0.00 0.00 0.00 63 1033.0
20201028202310 35 171 5.0 9.0 0.00 0.00 0.00 63 1033.0
20201028202210 35 168 3.0 9.0 0.00 0.00 0.00 63 1033.0
20201028202109 35 171 2.0 9.0 0.00 0.00 0.00 63 1033.0
20201028202021 35 171 5.0 9.0 0.00 0.00 0.00 63 1033.0
20201028201909 35 166 5.0 9.0 0.00 0.00 0.00 63 1033.0
20201028201818 35 166 5.0 9.0 0.00 0.00 0.00 63 1033.0
20201028201721 35 162 6.0 9.0 0.00 0.00 0.00 63 1033.0
20201028201613 35 160 4.0 9.0 0.00 0.00 0.00 63 1033.0
20201028201531 35 157 6.0 9.0 0.00 0.00 0.00 63 1033.0
20201028201417 35 155 2.0 9.0 0.00 0.00 0.00 63 1033.0
20201028201311 35 155 3.0 9.0 0.00 0.00 0.00 63 1033.0
20201028201211 35 156 3.0 9.0 0.00 0.00 0.00 63 1033.0
20201028201122 35 158 6.0 9.0 0.00 0.00 0.00 63 1033.0
20201028201018 35 155 5.0 9.0 0.00 0.00 0.00 63 1033.0
20201028200920 35 159 5.0 9.0 0.00 0.00 0.00 63 1033.0
20201028200809 35 157 7.0 9.0 0.00 0.00 0.00 63 1033.0
20201028200715 35 155 6.0 9.0 0.00 0.00 0.00 63 1033.0
20201028200610 35 158 6.0 9.0 0.00 0.00 0.00 63 1033.0
20201028200518 35 158 6.0 9.0 0.00 0.00 0.00 63 1033.0
20201028200410 35 163 4.0 10.0 0.00 0.00 0.00 63 1033.0
20201028200311 35 165 3.0 10.0 0.00 0.00 0.00 63 1033.0
20201028200217 35 166 6.0 10.0 0.00 0.00 0.00 63 1033.0
20201028200111 35 164 6.0 10.0 0.00 0.00 0.00 63 1033.0
20201028200058 35 164 6.0 10.0 0.00 0.00 0.00 63 1033.0
20201028195913 35 160 6.0 10.0 0.00 0.00 0.00 63 1033.0
20201028195810 35 159 6.0 10.0 0.00 0.00 0.00 63 1033.0
20201028195711 35 160 6.0 10.0 0.00 0.00 0.00 63 1033.0
20201028195611 35 161 7.0 10.0 0.00 0.00 0.00 63 1033.0
20201028195510 35 159 7.0 10.0 0.00 0.00 0.00 63 1033.0
20201028195414 35 155 6.0 8.0 0.00 0.00 0.00 62 1033.0
20201028195315 35 155 7.0 8.0 0.00 0.00 0.00 62 1033.0
20201028195211 35 150 5.0 8.0 0.00 0.00 0.00 63 1033.0
20201028195109 35 151 4.0 7.0 0.00 0.00 0.00 63 1033.0
20201028195009 35 155 5.0 7.0 0.00 0.00 0.00 62 1033.0
20201028194910 35 161 4.0 7.0 0.00 0.00 0.00 62 1033.0
20201028194810 35 161 4.0 6.0 0.00 0.00 0.00 62 1033.0
20201028194711 35 161 4.0 6.0 0.00 0.00 0.00 62 1033.0
20201028194609 35 157 6.0 6.0 0.00 0.00 0.00 62 1033.0
20201028194520 35 158 4.0 7.0 0.00 0.00 0.00 61 1033.0
20201028194411 35 161 4.0 7.0 0.00 0.00 0.00 61 1033.0
20201028194310 35 159 5.0 9.0 0.00 0.00 0.00 61 1033.0
20201028194210 35 161 4.0 9.0 0.00 0.00 0.00 61 1033.0
20201028194121 35 156 3.0 9.0 0.00 0.00 0.00 61 1033.0
20201028194012 35 158 5.0 9.0 0.00 0.00 0.00 61 1033.0
20201028193910 35 153 6.0 9.0 0.00 0.00 0.00 61 1033.0
20201028193811 35 156 6.0 9.0 0.00 0.00 0.00 61 1033.0
20201028193710 35 163 6.0 9.0 0.00 0.00 0.00 61 1033.0
20201028193611 35 164 5.0 9.0 0.00 0.00 0.00 61 1033.0
20201028193517 35 167 7.0 9.0 0.00 0.00 0.00 61 1033.0
20201028193412 35 168 5.0 9.0 0.00 0.00 0.00 61 1033.0
20201028193312 35 169 6.0 7.0 0.00 0.00 0.00 61 1033.0
20201028193217 35 169 4.0 7.0 0.00 0.00 0.00 61 1033.0
20201028193110 35 170 3.0 6.0 0.00 0.00 0.00 61 1033.0
20201028193028 35 168 4.0 6.0 0.00 0.00 0.00 61 1033.0
20201028192910 35 170 4.0 6.0 0.00 0.00 0.00 61 1033.0
20201028192815 35 170 5.0 6.0 0.00 0.00 0.00 61 1033.0
20201028192709 35 167 4.0 6.0 0.00 0.00 0.00 61 1033.0
20201028192613 35 167 3.0 6.0 0.00 0.00 0.00 61 1033.0
20201028192510 35 165 4.0 6.0 0.00 0.00 0.00 61 1033.0
20201028192410 35 162 2.0 6.0 0.00 0.00 0.00 61 1033.0
20201028192313 35 160 2.0 6.0 0.00 0.00 0.00 61 1033.0
20201028192211 35 156 5.0 6.0 0.00 0.00 0.00 60 1033.0
20201028192121 35 156 4.0 6.0 0.00 0.00 0.00 60 1033.0
20201028192021 36 156 3.0 6.0 0.00 0.00 0.00 60 1033.0
20201028191911 36 155 4.0 6.0 0.00 0.00 0.00 60 1033.0
20201028191810 36 155 4.0 6.0 0.00 0.00 0.00 60 1034.0
20201028191713 36 155 6.0 6.0 0.00 0.00 0.00 60 1034.0
20201028191609 36 154 6.0 8.0 0.00 0.00 0.00 60 1034.0
20201028191530 36 154 2.0 8.0 0.00 0.00 0.00 60 1034.0
20201028191410 36 156 6.0 8.0 0.00 0.00 0.00 60 1034.0
20201028191310 36 157 5.0 8.0 0.00 0.00 0.00 60 1034.0
20201028191211 36 162 4.0 8.0 0.00 0.00 0.00 60 1034.0
20201028191111 36 162 4.0 8.0 0.00 0.00 0.00 60 1034.0
20201028191022 36 159 5.0 9.0 0.00 0.00 0.00 60 1034.0
20201028190916 36 160 5.0 9.0 0.00 0.00 0.00 60 1034.0
20201028190810 36 164 5.0 9.0 0.00 0.00 0.00 60 1034.0
20201028190710 36 159 6.0 10.0 0.00 0.00 0.00 60 1034.0
20201028190612 36 157 6.0 10.0 0.00 0.00 0.00 60 1034.0
20201028190513 36 157 5.0 10.0 0.00 0.00 0.00 60 1034.0
20201028190411 36 155 6.0 10.0 0.00 0.00 0.00 59 1034.0
20201028190314 36 155 5.0 10.0 0.00 0.00 0.00 59 1034.0
20201028190210 36 155 5.0 10.0 0.00 0.00 0.00 59 1034.0
20201028190137 36 159 2.0 10.0 0.00 0.00 0.00 59 1034.0
20201028190021 36 159 6.0 10.0 0.00 0.00 0.00 59 1034.0
20201028185911 36 154 6.0 10.0 0.00 0.00 0.00 59 1034.0
20201028185811 36 149 6.0 10.0 0.00 0.00 0.00 59 1034.0
20201028185714 36 152 6.0 10.0 0.00 0.00 0.00 59 1034.0
20201028185622 36 153 5.0 10.0 0.00 0.00 0.00 59 1034.0
20201028185520 36 156 5.0 9.0 0.00 0.00 0.00 59 1034.0
20201028185412 36 161 5.0 10.0 0.00 0.00 0.00 60 1034.0
20201028185310 36 162 4.0 10.0 0.00 0.00 0.00 59 1034.0
20201028185217 36 163 5.0 10.0 0.00 0.00 0.00 59 1034.0
20201028185118 36 163 8.0 10.0 0.00 0.00 0.00 59 1034.0
20201028185031 36 168 6.0 10.0 0.00 0.00 0.00 59 1034.0
20201028184914 36 174 6.0 10.0 0.00 0.00 0.00 59 1034.0
20201028184816 36 178 6.0 10.0 0.00 0.00 0.00 59 1034.0
20201028184709 36 176 6.0 10.0 0.00 0.00 0.00 59 1034.0
20201028184619 36 178 6.0 10.0 0.00 0.00 0.00 59 1034.0
20201028184519 36 180 5.0 10.0 0.00 0.00 0.00 59 1034.0
20201028184410 36 176 6.0 9.0 0.00 0.00 0.00 59 1034.0
20201028184310 36 170 3.0 9.0 0.00 0.00 0.00 59 1034.0
20201028184211 36 167 3.0 9.0 0.00 0.00 0.00 59 1034.0
20201028184116 36 164 4.0 9.0 0.00 0.00 0.00 59 1034.0
20201028184012 36 161 5.0 9.0 0.00 0.00 0.00 59 1034.0
20201028183910 36 157 7.0 9.0 0.00 0.00 0.00 59 1034.0
20201028183810 36 157 4.0 9.0 0.00 0.00 0.00 59 1034.0
20201028183713 36 156 7.0 11.0 0.00 0.00 0.00 59 1034.0
20201028183609 36 156 4.0 11.0 0.00 0.00 0.00 58 1034.0
20201028183512 36 153 5.0 11.0 0.00 0.00 0.00 58 1034.0
20201028183410 36 156 5.0 11.0 0.00 0.00 0.00 58 1034.0
20201028183311 36 159 6.0 11.0 0.00 0.00 0.00 58 1034.0
20201028183213 36 160 6.0 11.0 0.00 0.00 0.00 58 1034.0
20201028183114 36 164 5.0 11.0 0.00 0.00 0.00 58 1034.0
20201028183022 36 163 3.0 11.0 0.00 0.00 0.00 58 1034.0
20201028182913 36 162 7.0 11.0 0.00 0.00 0.00 58 1034.0
20201028182810 36 164 4.0 11.0 0.00 0.00 0.00 58 1034.0
20201028182711 36 167 4.0 11.0 0.00 0.00 0.00 58 1034.0
20201028182612 36 164 3.0 11.0 0.00 0.00 0.00 58 1034.0
20201028182510 36 164 5.0 12.0 0.00 0.00 0.00 58 1034.0
20201028182412 36 162 4.0 12.0 0.00 0.00 0.00 58 1034.0
20201028182309 36 165 5.0 12.0 0.00 0.00 0.00 58 1034.0
20201028182212 37 163 6.0 12.0 0.00 0.00 0.00 58 1034.0
20201028182113 37 161 8.0 12.0 0.00 0.00 0.00 58 1034.0
20201028182021 37 164 8.0 12.0 0.00 0.00 0.00 58 1034.0
20201028181910 37 169 5.0 12.0 0.00 0.00 0.00 58 1034.0
20201028181811 37 167 5.0 12.0 0.00 0.00 0.00 58 1034.0
20201028181710 37 170 7.0 12.0 0.00 0.00 0.00 58 1034.0
20201028181609 37 172 7.0 12.0 0.00 0.00 0.00 58 1034.0
20201028181519 37 170 6.0 9.0 0.00 0.00 0.00 58 1034.0
20201028181422 37 174 5.0 9.0 0.00 0.00 0.00 58 1034.0
20201028181311 37 171 5.0 9.0 0.00 0.00 0.00 58 1034.0
20201028181211 37 173 6.0 9.0 0.00 0.00 0.00 58 1034.0
20201028181111 37 172 4.0 9.0 0.00 0.00 0.00 58 1034.0
20201028181019 37 170 4.0 9.0 0.00 0.00 0.00 58 1034.0
20201028180911 37 172 4.0 9.0 0.00 0.00 0.00 58 1034.0
20201028180810 37 172 4.0 9.0 0.00 0.00 0.00 58 1034.0
20201028180711 37 167 6.0 9.0 0.00 0.00 0.00 57 1034.0
20201028180610 37 169 7.0 9.0 0.00 0.00 0.00 57 1034.0
20201028180515 37 174 7.0 8.0 0.00 0.00 0.00 57 1034.0
20201028180410 37 171 2.0 8.0 0.00 0.00 0.00 58 1034.0
20201028180313 37 179 4.0 8.0 0.00 0.00 0.00 58 1034.0
20201028180210 37 175 4.0 8.0 0.00 0.00 0.00 57 1034.0
20201028180121 37 179 5.0 9.0 0.00 0.00 0.00 57 1034.0
20201028180019 37 179 4.0 9.0 0.00 0.00 0.00 57 1034.0
20201028175909 37 179 4.0 9.0 0.00 0.00 0.00 57 1034.0
20201028175810 37 177 4.0 9.0 0.00 0.00 0.00 57 1034.0
20201028175710 37 179 4.0 9.0 0.00 0.00 0.00 57 1034.0
20201028175610 37 174 6.0 10.0 0.00 0.00 0.00 57 1034.0
20201028175509 37 177 4.0 10.0 0.00 0.00 0.00 57 1034.0
20201028175409 37 178 6.0 10.0 0.00 0.00 0.00 57 1034.0
20201028175313 37 177 6.0 10.0 0.00 0.00 0.00 57 1034.0
20201028175210 37 178 6.0 10.0 0.00 0.00 0.00 57 1034.0
20201028175111 37 175 3.0 10.0 0.00 0.00 0.00 57 1034.0
20201028175020 37 174 4.0 10.0 0.00 0.00 0.00 57 1034.0
20201028174909 37 172 4.0 10.0 0.00 0.00 0.00 57 1034.0
20201028174816 37 172 7.0 10.0 0.00 0.00 0.00 57 1034.0
20201028174710 37 174 6.0 10.0 0.00 0.00 0.00 57 1034.0
20201028174610 38 181 4.0 9.0 0.00 0.00 0.00 57 1034.0
20201028174520 38 174 4.0 8.0 0.00 0.00 0.00 57 1034.0
20201028174410 38 176 5.0 9.0 0.00 0.00 0.00 57 1034.0
20201028174310 38 170 5.0 9.0 0.00 0.00 0.00 57 1034.0
20201028174209 38 168 5.0 9.0 0.00 0.00 0.00 57 1034.0
20201028174110 38 171 4.0 9.0 0.00 0.00 0.00 57 1034.0
20201028174010 38 172 4.0 9.0 0.00 0.00 0.00 57 1034.0
20201028173910 38 167 4.0 9.0 0.00 0.00 0.00 58 1034.0
20201028173812 38 167 4.0 9.0 0.00 0.00 0.00 57 1034.0
20201028173709 38 162 4.0 9.0 0.00 0.00 0.00 57 1034.0
20201028173610 38 160 4.0 9.0 0.00 0.00 0.00 58 1034.0
20201028173512 38 160 8.0 9.0 0.00 0.00 0.00 58 1034.0
20201028173410 38 157 4.0 9.0 0.00 0.00 0.00 58 1034.0
20201028173310 38 161 6.0 9.0 0.00 0.00 0.00 58 1034.0
20201028173213 38 160 6.0 9.0 0.00 0.00 0.00 58 1034.0
20201028173114 38 157 6.0 12.0 0.00 0.00 0.00 58 1034.0
20201028173023 38 157 7.0 12.0 0.00 0.00 0.00 58 1034.0
20201028172911 38 162 5.0 12.0 0.00 0.00 0.00 57 1034.0
20201028172811 38 163 6.0 12.0 0.00 0.00 0.00 57 1034.0
20201028172710 38 166 4.0 12.0 0.00 0.00 0.00 57 1034.0
20201028172610 38 166 7.0 12.0 0.00 0.00 0.00 57 1034.0
20201028172510 38 166 4.0 12.0 0.00 0.00 0.00 57 1034.0
20201028172410 38 168 2.0 12.0 0.00 0.00 0.00 57 1034.0
20201028172310 38 169 8.0 12.0 0.00 0.00 0.00 57 1034.0
20201028172210 38 171 6.0 12.0 0.00 0.00 0.00 57 1034.0
20201028172111 38 175 7.0 11.0 0.00 0.00 0.00 56 1034.0
20201028172017 38 182 4.0 11.0 0.00 0.00 0.00 56 1034.0
20201028171911 38 176 4.0 9.0 0.00 0.00 0.00 56 1034.0
20201028171810 38 177 4.0 9.0 0.00 0.00 0.00 56 1034.0
20201028171713 38 179 4.0 9.0 0.00 0.00 0.00 56 1034.0
20201028171613 38 177 6.0 9.0 0.00 0.00 0.00 56 1034.0
20201028171539 38 176 6.0 9.0 0.00 0.00 0.00 56 1034.0
20201028171409 38 175 4.0 9.0 0.00 0.00 0.00 56 1034.0
20201028171313 38 177 4.0 9.0 0.00 0.00 0.00 56 1034.0
20201028171216 38 173 3.0 9.0 0.00 0.00 0.00 56 1034.0
20201028171114 38 175 7.0 9.0 0.00 0.00 0.00 56 1034.0
20201028171020 38 170 7.0 9.0 0.00 0.00 0.00 56 1034.0
20201028170910 38 165 3.0 10.0 0.00 0.00 0.00 56 1034.0
20201028170817 38 160 5.0 10.0 0.00 0.00 0.00 56 1034.0
20201028170719 38 158 7.0 10.0 0.00 0.00 0.00 55 1034.0
20201028170614 38 153 4.0 11.0 0.00 0.00 0.00 55 1034.0
20201028170513 38 150 4.0 11.0 0.00 0.00 0.00 55 1034.0
20201028170411 38 152 5.0 11.0 0.00 0.00 0.00 55 1034.0
20201028170316 38 147 5.0 11.0 0.00 0.00 0.00 55 1034.0
20201028170209 38 144 4.0 11.0 0.00 0.00 0.00 55 1034.0
20201028170109 38 141 9.0 11.0 0.00 0.00 0.00 55 1034.0
20201028170025 38 139 6.0 13.0 0.00 0.00 0.00 55 1034.0
20201028165917 38 138 5.0 13.0 0.00 0.00 0.00 55 1034.0
20201028165810 38 138 9.0 13.0 0.00 0.00 0.00 55 1034.0
20201028165714 38 137 8.0 13.0 0.00 0.00 0.00 55 1034.0
20201028165617 38 141 8.0 13.0 0.00 0.00 0.00 55 1034.0
20201028165511 38 141 8.0 13.0 0.00 0.00 0.00 55 1034.0
20201028165414 38 137 6.0 13.0 0.00 0.00 0.00 55 1034.0
20201028165316 38 139 7.0 13.0 0.00 0.00 0.00 55 1034.0
20201028165210 38 139 10.0 13.0 0.00 0.00 0.00 55 1034.0
20201028165134 38 140 7.0 13.0 0.00 0.00 0.00 55 1034.0
20201028165026 38 143 6.0 9.0 0.00 0.00 0.00 55 1034.0
20201028164920 38 149 4.0 8.0 0.00 0.00 0.00 55 1034.0
20201028164811 38 152 4.0 8.0 0.00 0.00 0.00 55 1034.0
20201028164712 38 152 3.0 9.0 0.00 0.00 0.00 55 1034.0
20201028164614 38 148 5.0 9.0 0.00 0.00 0.00 55 1034.0
20201028164522 38 147 7.0 9.0 0.00 0.00 0.00 55 1034.0
20201028164411 38 148 4.0 9.0 0.00 0.00 0.00 55 1034.0
20201028164313 38 147 2.0 9.0 0.00 0.00 0.00 55 1034.0
20201028164209 38 146 2.0 9.0 0.00 0.00 0.00 55 1034.0
20201028164110 38 147 3.0 9.0 0.00 0.00 0.00 55 1034.0
20201028164018 39 147 3.0 9.0 0.00 0.00 0.00 55 1034.0
20201028163924 39 147 5.0 9.0 0.00 0.00 0.00 55 1034.0
20201028163847 39 144 4.0 9.0 0.00 0.00 0.00 55 1034.0
20201028163710 39 142 6.0 8.0 0.00 0.00 0.00 55 1034.0
20201028163613 39 144 6.0 8.0 0.00 0.00 0.00 55 1034.0
20201028163522 39 149 6.0 7.0 0.00 0.00 0.00 55 1034.0
20201028163416 39 151 4.0 7.0 0.00 0.00 0.00 55 1034.0
20201028163312 39 153 5.0 7.0 0.00 0.00 0.00 55 1034.0
20201028163215 39 157 4.0 6.0 0.00 0.00 0.00 55 1034.0
20201028163110 39 154 4.0 6.0 0.00 0.00 0.00 55 1034.0
20201028163025 39 154 4.0 7.0 0.00 0.00 0.00 55 1034.0
20201028162914 39 154 4.0 7.0 0.00 0.00 0.00 55 1034.0
20201028162810 39 153 4.0 7.0 0.00 0.00 0.00 55 1034.0
20201028162711 39 153 4.0 7.0 0.00 0.00 0.00 55 1034.0
20201028162611 39 153 4.0 7.0 0.00 0.00 0.00 55 1034.0
20201028162528 39 150 3.0 9.0 0.00 0.00 0.00 55 1034.0
20201028162416 39 150 4.0 9.0 0.00 0.00 0.00 55 1034.0
20201028162316 39 149 4.0 9.0 0.00 0.00 0.00 55 1034.0
20201028162212 39 146 5.0 9.0 0.00 0.00 0.00 55 1034.0
20201028162113 39 145 5.0 9.0 0.00 0.00 0.00 55 1034.0
20201028162023 39 145 5.0 9.0 0.00 0.00 0.00 55 1034.0
20201028161911 39 145 6.0 9.0 0.00 0.00 0.00 55 1034.0
20201028161813 39 146 4.0 9.0 0.00 0.00 0.00 55 1034.0
20201028161710 39 151 3.0 9.0 0.00 0.00 0.00 55 1034.0
20201028161610 39 152 5.0 9.0 0.00 0.00 0.00 55 1034.0
20201028161523 39 150 4.0 9.0 0.00 0.00 0.00 55 1034.0
20201028161414 39 151 4.0 6.0 0.00 0.00 0.00 55 1034.0
20201028161309 39 154 4.0 6.0 0.00 0.00 0.00 55 1034.0
20201028161210 39 155 3.0 6.0 0.00 0.00 0.00 55 1034.0
20201028161110 39 157 2.0 7.0 0.00 0.00 0.00 54 1034.0
20201028161019 39 156 4.0 7.0 0.00 0.00 0.00 54 1034.0
20201028160910 39 156 2.0 7.0 0.00 0.00 0.00 54 1034.0
20201028160809 39 157 3.0 7.0 0.00 0.00 0.00 54 1034.0
20201028160714 39 152 3.0 7.0 0.00 0.00 0.00 54 1034.0
20201028160616 39 151 3.0 7.0 0.00 0.00 0.00 54 1034.0
20201028160524 39 151 4.0 7.0 0.00 0.00 0.00 53 1034.0
20201028160411 39 153 6.0 8.0 0.00 0.00 0.00 53 1034.0
20201028160313 39 150 5.0 8.0 0.00 0.00 0.00 53 1034.0
20201028160209 39 150 5.0 8.0 0.00 0.00 0.00 53 1034.0
20201028160111 39 152 4.0 8.0 0.00 0.00 0.00 53 1034.0
20201028160038 39 153 4.0 8.0 0.00 0.00 0.00 53 1034.0
20201028155918 39 152 6.0 8.0 0.00 0.00 0.00 53 1034.0
20201028155809 39 151 4.0 8.0 0.00 0.00 0.00 53 1034.0
20201028155711 39 155 3.0 8.0 0.00 0.00 0.00 53 1034.0
20201028155612 39 153 7.0 8.0 0.00 0.00 0.00 53 1034.0
20201028155531 39 151 3.0 9.0 0.00 0.00 0.00 53 1034.0
20201028155413 39 149 3.0 9.0 0.00 0.00 0.00 53 1034.0
20201028155311 39 147 3.0 9.0 0.00 0.00 0.00 53 1034.0
20201028155222 39 149 4.0 9.0 0.00 0.00 0.00 53 1034.0
20201028155123 39 151 6.0 9.0 0.00 0.00 0.00 53 1034.0
20201028155018 39 143 4.0 9.0 0.00 0.00 0.00 53 1034.0
20201028154924 39 150 1.0 9.0 0.00 0.00 0.00 52 1034.0
20201028154816 39 151 4.0 9.0 0.00 0.00 0.00 52 1034.0
20201028154712 39 149 7.0 9.0 0.00 0.00 0.00 52 1034.0
20201028154609 39 151 7.0 9.0 0.00 0.00 0.00 52 1034.0
20201028154516 39 157 5.0 9.0 0.00 0.00 0.00 52 1034.0
20201028154419 39 160 3.0 9.0 0.00 0.00 0.00 52 1034.0
20201028154316 39 158 5.0 9.0 0.00 0.00 0.00 52 1034.0
20201028154211 39 155 5.0 9.0 0.00 0.00 0.00 52 1034.0
20201028154110 39 153 6.0 9.0 0.00 0.00 0.00 52 1034.0
20201028154021 39 157 6.0 9.0 0.00 0.00 0.00 52 1034.0
20201028153913 39 154 7.0 9.0 0.00 0.00 0.00 52 1034.0
20201028153815 39 155 6.0 8.0 0.00 0.00 0.00 52 1034.0
20201028153713 39 155 4.0 8.0 0.00 0.00 0.00 52 1034.0
20201028153610 39 151 6.0 8.0 0.00 0.00 0.00 52 1034.0
20201028153510 39 149 4.0 9.0 0.00 0.00 0.00 52 1034.0
20201028153410 39 147 4.0 9.0 0.00 0.00 0.00 52 1034.0
20201028153312 40 147 4.0 9.0 0.00 0.00 0.00 51 1034.0
20201028153215 40 147 4.0 9.0 0.00 0.00 0.00 51 1034.0
20201028153128 40 146 3.0 11.0 0.00 0.00 0.00 51 1034.0
20201028153024 40 146 4.0 11.0 0.00 0.00 0.00 51 1034.0
20201028152910 40 144 6.0 11.0 0.00 0.00 0.00 51 1034.0
20201028152809 40 144 6.0 11.0 0.00 0.00 0.00 51 1034.0
20201028152709 40 143 7.0 11.0 0.00 0.00 0.00 51 1034.0
20201028152610 40 144 7.0 11.0 0.00 0.00 0.00 51 1034.0
20201028152510 40 139 7.0 11.0 0.00 0.00 0.00 51 1034.0
20201028152410 40 145 5.0 11.0 0.00 0.00 0.00 51 1034.0
20201028152314 40 144 6.0 11.0 0.00 0.00 0.00 50 1034.0
20201028152209 40 147 4.0 11.0 0.00 0.00 0.00 50 1034.0
20201028152115 40 146 4.0 8.0 0.00 0.00 0.00 50 1034.0
20201028152011 40 147 3.0 8.0 0.00 0.00 0.00 50 1034.0
20201028151910 40 148 2.0 8.0 0.00 0.00 0.00 50 1034.0
20201028151812 40 154 3.0 8.0 0.00 0.00 0.00 50 1034.0
20201028151710 40 154 4.0 8.0 0.00 0.00 0.00 50 1034.0
20201028151612 40 155 3.0 8.0 0.00 0.00 0.00 50 1034.0
20201028151519 40 160 7.0 8.0 0.00 0.00 0.00 50 1034.0
20201028151410 40 158 4.0 8.0 0.00 0.00 0.00 50 1034.0
20201028151317 40 158 6.0 8.0 0.00 0.00 0.00 50 1034.0
20201028151216 40 151 4.0 9.0 0.00 0.00 0.00 49 1034.0
20201028151111 40 152 4.0 9.0 0.00 0.00 0.00 49 1034.0
20201028151019 40 149 5.0 11.0 0.00 0.00 0.00 49 1034.0
20201028150909 40 148 5.0 11.0 0.00 0.00 0.00 49 1034.0
20201028150811 40 146 4.0 11.0 0.00 0.00 0.00 49 1034.0
20201028150720 40 144 4.0 11.0 0.00 0.00 0.00 49 1034.0
20201028150615 40 144 4.0 11.0 0.00 0.00 0.00 49 1034.0
20201028150518 40 141 3.0 11.0 0.00 0.00 0.00 49 1034.0
20201028150315 40 141 7.0 13.0 0.00 0.00 0.00 48 1034.0
20201028150214 40 147 6.0 13.0 0.00 0.00 0.00 48 1034.0
20201028150116 40 148 6.0 13.0 0.00 0.00 0.00 49 1034.0
20201028150032 40 149 5.0 13.0 0.00 0.00 0.00 49 1034.0
20201028145916 40 149 3.0 13.0 0.00 0.00 0.00 49 1034.0
20201028145814 40 148 6.0 13.0 0.00 0.00 0.00 49 1034.0
20201028145710 40 146 6.0 13.0 0.00 0.00 0.00 49 1034.0
20201028145613 40 146 8.0 13.0 0.00 0.00 0.00 49 1034.0
20201028145514 40 147 11.0 13.0 0.00 0.00 0.00 49 1034.0
20201028145421 40 145 7.0 13.0 0.00 0.00 0.00 49 1034.0
20201028145310 40 146 4.0 10.0 0.00 0.00 0.00 49 1034.0
20201028145213 40 142 4.0 10.0 0.00 0.00 0.00 49 1034.0
20201028145110 40 142 6.0 10.0 0.00 0.00 0.00 49 1034.0
20201028145009 40 143 6.0 10.0 0.00 0.00 0.00 49 1034.0
20201028144911 40 148 6.0 10.0 0.00 0.00 0.00 48 1034.0
20201028144815 40 150 4.0 10.0 0.00 0.00 0.00 48 1034.0
20201028144717 40 154 3.0 10.0 0.00 0.00 0.00 48 1034.0
20201028144617 40 154 6.0 11.0 0.00 0.00 0.00 48 1034.0
20201028144533 40 153 6.0 11.0 0.00 0.00 0.00 48 1034.0
20201028144413 40 154 9.0 11.0 0.00 0.00 0.00 48 1034.0
20201028144311 40 153 9.0 11.0 0.00 0.00 0.00 48 1034.0
20201028144217 40 156 6.0 11.0 0.00 0.00 0.00 48 1034.0
20201028144114 40 153 6.0 11.0 0.00 0.00 0.00 48 1034.0
20201028144030 40 149 4.0 12.0 0.00 0.00 0.00 48 1034.0
20201028143921 40 145 5.0 12.0 0.00 0.00 0.00 48 1034.0
20201028143820 40 143 6.0 12.0 0.00 0.00 0.00 48 1034.0
20201028143714 40 141 9.0 12.0 0.00 0.00 0.00 48 1034.0
20201028143630 40 139 9.0 12.0 0.00 0.00 0.00 48 1034.0
20201028143512 40 140 6.0 12.0 0.00 0.00 0.00 48 1034.0
20201028143413 40 143 6.0 12.0 0.00 0.00 0.00 48 1034.0
20201028143316 40 142 7.0 12.0 0.00 0.00 0.00 47 1034.0
20201028143211 40 140 9.0 12.0 0.00 0.00 0.00 47 1034.0
20201028143110 40 143 7.0 12.0 0.00 0.00 0.00 47 1034.0
20201028143025 40 147 5.0 12.0 0.00 0.00 0.00 48 1034.0
20201028142911 41 147 5.0 10.0 0.00 0.00 0.00 48 1034.0
20201028142811 41 149 4.0 10.0 0.00 0.00 0.00 48 1034.0
20201028142714 41 150 7.0 10.0 0.00 0.00 0.00 48 1034.0
20201028142616 41 150 6.0 10.0 0.00 0.00 0.00 48 1034.0
20201028142523 41 148 7.0 10.0 0.00 0.00 0.00 47 1034.0
20201028142412 41 145 8.0 10.0 0.00 0.00 0.00 47 1034.0
20201028142312 41 146 7.0 10.0 0.00 0.00 0.00 47 1034.0
20201028142212 41 150 7.0 10.0 0.00 0.00 0.00 47 1034.0
20201028142112 41 152 4.0 10.0 0.00 0.00 0.00 47 1034.0
20201028142020 41 151 6.0 10.0 0.00 0.00 0.00 47 1034.0
20201028141915 41 149 6.0 10.0 0.00 0.00 0.00 46 1034.0
20201028141810 41 152 7.0 10.0 0.00 0.00 0.00 46 1034.0
20201028141710 41 152 8.0 10.0 0.00 0.00 0.00 46 1034.0
20201028141611 41 153 7.0 10.0 0.00 0.00 0.00 46 1034.0
20201028141526 41 155 7.0 10.0 0.00 0.00 0.00 46 1034.0
20201028141411 41 161 6.0 10.0 0.00 0.00 0.00 46 1034.0
20201028141318 41 163 5.0 9.0 0.00 0.00 0.00 45 1034.0
20201028141211 41 154 6.0 9.0 0.00 0.00 0.00 45 1034.0
20201028141115 41 152 7.0 9.0 0.00 0.00 0.00 45 1034.0
20201028141023 41 150 3.0 9.0 0.00 0.00 0.00 45 1034.0
20201028140912 41 152 5.0 9.0 0.00 0.00 0.00 45 1034.0
20201028140812 41 146 5.0 9.0 0.00 0.00 0.00 44 1034.0
20201028140725 41 143 4.0 9.0 0.00 0.00 0.00 44 1034.0
20201028140610 41 140 3.0 9.0 0.00 0.00 0.00 44 1034.0
20201028140510 41 141 5.0 9.0 0.00 0.00 0.00 44 1034.0
20201028140410 41 139 7.0 9.0 0.00 0.00 0.00 43 1034.0
20201028140319 41 143 5.0 12.0 0.00 0.00 0.00 43 1034.0
20201028140210 41 148 4.0 12.0 0.00 0.00 0.00 43 1034.0
20201028140112 41 148 4.0 12.0 0.00 0.00 0.00 43 1034.0
20201028140056 41 150 6.0 12.0 0.00 0.00 0.00 43 1034.0
20201028135912 41 150 6.0 12.0 0.00 0.00 0.00 43 1034.0
20201028135816 41 152 6.0 12.0 0.00 0.00 0.00 43 1034.0
20201028135713 41 151 6.0 12.0 0.00 0.00 0.00 43 1034.0
20201028135616 41 153 7.0 12.0 0.00 0.00 0.00 42 1034.0
20201028135518 41 154 9.0 12.0 0.00 0.00 0.00 42 1034.0
20201028135410 41 155 6.0 12.0 0.00 0.00 0.00 42 1034.0
20201028135311 41 150 5.0 11.0 0.00 0.00 0.00 42 1034.0
20201028135218 41 148 4.0 11.0 0.00 0.00 0.00 42 1034.0
20201028135111 41 148 7.0 11.0 0.00 0.00 0.00 42 1034.0
20201028135020 41 147 8.0 11.0 0.00 0.00 0.00 42 1034.0
20201028134910 41 146 8.0 10.0 0.00 0.00 0.00 42 1034.0
20201028134809 41 147 8.0 9.0 0.00 0.00 0.00 42 1033.0
20201028134715 41 147 6.0 9.0 0.00 0.00 0.00 42 1033.0
20201028134613 41 146 6.0 9.0 0.00 0.00 0.00 42 1033.0
20201028134519 41 149 5.0 9.0 0.00 0.00 0.00 42 1033.0
20201028134412 41 147 8.0 9.0 0.00 0.00 0.00 41 1033.0
20201028134309 41 148 8.0 9.0 0.00 0.00 0.00 41 1033.0
20201028134210 41 152 5.0 10.0 0.00 0.00 0.00 41 1033.0
20201028134110 42 157 6.0 10.0 0.00 0.00 0.00 41 1033.0
20201028134011 42 157 6.0 10.0 0.00 0.00 0.00 41 1033.0
20201028133911 42 159 9.0 10.0 0.00 0.00 0.00 41 1033.0
20201028133811 42 159 5.0 10.0 0.00 0.00 0.00 41 1033.0
20201028133716 42 160 5.0 10.0 0.00 0.00 0.00 41 1033.0
20201028133613 42 161 7.0 11.0 0.00 0.00 0.00 41 1033.0
20201028133512 42 155 6.0 11.0 0.00 0.00 0.00 41 1033.0
20201028133410 42 153 6.0 11.0 0.00 0.00 0.00 41 1033.0
20201028133312 42 152 6.0 11.0 0.00 0.00 0.00 41 1034.0
20201028133212 42 150 4.0 11.0 0.00 0.00 0.00 41 1034.0
20201028133110 42 150 5.0 11.0 0.00 0.00 0.00 41 1034.0
20201028133034 42 150 5.0 11.0 0.00 0.00 0.00 40 1034.0
20201028132910 42 149 6.0 11.0 0.00 0.00 0.00 40 1034.0
20201028132810 42 146 6.0 11.0 0.00 0.00 0.00 40 1034.0
20201028132717 42 145 9.0 11.0 0.00 0.00 0.00 40 1034.0
20201028132619 42 142 8.0 11.0 0.00 0.00 0.00 40 1034.0
20201028132510 42 142 6.0 10.0 0.00 0.00 0.00 40 1034.0
20201028132410 42 143 4.0 10.0 0.00 0.00 0.00 40 1034.0
20201028132319 42 146 4.0 10.0 0.00 0.00 0.00 40 1034.0
20201028132213 42 144 5.0 13.0 0.00 0.00 0.00 40 1034.0
20201028132112 42 145 3.0 13.0 0.00 0.00 0.00 40 1034.0
20201028132011 42 150 6.0 13.0 0.00 0.00 0.00 40 1034.0
20201028131916 42 148 10.0 13.0 0.00 0.00 0.00 40 1034.0
20201028131811 42 151 9.0 13.0 0.00 0.00 0.00 40 1033.0
20201028131720 42 154 8.0 13.0 0.00 0.00 0.00 40 1033.0
20201028131622 42 156 6.0 13.0 0.00 0.00 0.00 40 1033.0
20201028131519 42 156 6.0 13.0 0.00 0.00 0.00 40 1033.0
20201028131410 42 160 9.0 13.0 0.00 0.00 0.00 40 1033.0
20201028131323 42 162 9.0 13.0 0.00 0.00 0.00 39 1033.0
20201028131213 42 165 11.0 12.0 0.00 0.00 0.00 39 1033.0
20201028131110 42 164 6.0 12.0 0.00 0.00 0.00 40 1033.0
20201028131022 42 161 7.0 11.0 0.00 0.00 0.00 40 1033.0
20201028130914 43 163 4.0 11.0 0.00 0.00 0.00 40 1033.0
20201028130810 43 165 7.0 11.0 0.00 0.00 0.00 40 1033.0
20201028130713 43 166 7.0 11.0 0.00 0.00 0.00 40 1033.0
20201028130619 43 161 4.0 9.0 0.00 0.00 0.00 39 1033.0
20201028130522 43 163 4.0 9.0 0.00 0.00 0.00 40 1033.0
20201028130410 43 163 6.0 9.0 0.00 0.00 0.00 39 1033.0
20201028130310 43 154 5.0 12.0 0.00 0.00 0.00 39 1034.0
20201028130209 43 153 3.0 12.0 0.00 0.00 0.00 40 1034.0
20201028130111 43 151 4.0 13.0 0.00 0.00 0.00 40 1034.0
20201028130021 43 149 6.0 13.0 0.00 0.00 0.00 40 1034.0
20201028125910 43 149 4.0 13.0 0.00 0.00 0.00 40 1034.0
20201028125810 43 147 4.0 13.0 0.00 0.00 0.00 40 1034.0
20201028125711 43 144 8.0 13.0 0.00 0.00 0.00 39 1034.0
20201028125614 43 145 6.0 13.0 0.00 0.00 0.00 39 1034.0
20201028125523 43 144 10.0 13.0 0.00 0.00 0.00 39 1034.0
20201028125411 43 143 7.0 13.0 0.00 0.00 0.00 39 1034.0
20201028125317 43 144 10.0 13.0 0.00 0.00 0.00 39 1034.0
20201028125211 43 148 11.0 13.0 0.00 0.00 0.00 39 1034.0
20201028125110 43 152 11.0 13.0 0.00 0.00 0.00 39 1034.0
20201028125019 43 153 7.0 13.0 0.00 0.00 0.00 39 1034.0
20201028124909 43 152 6.0 13.0 0.00 0.00 0.00 39 1034.0
20201028124810 43 155 7.0 13.0 0.00 0.00 0.00 39 1034.0
20201028124710 43 159 7.0 13.0 0.00 0.00 0.00 39 1034.0
20201028124610 43 159 6.0 13.0 0.00 0.00 0.00 39 1034.0
20201028124529 43 163 7.0 13.0 0.00 0.00 0.00 39 1034.0
20201028124410 43 162 7.0 13.0 0.00 0.00 0.00 39 1034.0
20201028124318 43 168 9.0 13.0 0.00 0.00 0.00 39 1034.0
20201028124211 43 168 10.0 13.0 0.00 0.00 0.00 39 1034.0
20201028124117 43 165 3.0 13.0 0.00 0.00 0.00 39 1034.0
20201028124021 43 168 5.0 13.0 0.00 0.00 0.00 39 1034.0
20201028123909 43 168 9.0 13.0 0.00 0.00 0.00 39 1034.0
20201028123811 43 160 9.0 13.0 0.00 0.00 0.00 39 1034.0
20201028123719 43 157 9.0 13.0 0.00 0.00 0.00 39 1034.0
20201028123609 43 154 3.0 12.0 0.00 0.00 0.00 39 1034.0
20201028123522 44 153 4.0 12.0 0.00 0.00 0.00 39 1034.0
20201028123414 43 159 4.0 12.0 0.00 0.00 0.00 39 1034.0
20201028123309 43 156 5.0 12.0 0.00 0.00 0.00 39 1034.0
20201028123209 43 157 4.0 13.0 0.00 0.00 0.00 39 1034.0
20201028123111 44 162 3.0 13.0 0.00 0.00 0.00 39 1034.0
20201028123029 43 164 3.0 13.0 0.00 0.00 0.00 39 1034.0
20201028122917 43 165 7.0 13.0 0.00 0.00 0.00 39 1034.0
20201028122810 43 168 7.0 13.0 0.00 0.00 0.00 39 1034.0
20201028122713 43 170 11.0 13.0 0.00 0.00 0.00 39 1034.0
20201028122611 43 170 4.0 13.0 0.00 0.00 0.00 38 1034.0
20201028122517 44 173 9.0 15.0 0.00 0.00 0.00 39 1034.0
20201028122410 43 166 10.0 15.0 0.00 0.00 0.00 38 1034.0
20201028122312 43 170 10.0 15.0 0.00 0.00 0.00 39 1034.0
20201028122213 44 171 6.0 15.0 0.00 0.00 0.00 39 1034.0
20201028122109 43 170 6.0 15.0 0.00 0.00 0.00 38 1034.0
20201028122012 43 172 8.0 15.0 0.00 0.00 0.00 38 1034.0
20201028121909 43 172 7.0 15.0 0.00 0.00 0.00 38 1034.0
20201028121810 43 174 7.0 15.0 0.00 0.00 0.00 38 1034.0
20201028121720 43 174 12.0 15.0 0.00 0.00 0.00 38 1034.0
20201028121610 43 177 12.0 15.0 0.00 0.00 0.00 38 1034.0
20201028121522 43 180 11.0 13.0 0.00 0.00 0.00 38 1034.0
20201028121409 43 186 4.0 12.0 0.00 0.00 0.00 38 1034.0
20201028121313 43 183 4.0 11.0 0.00 0.00 0.00 38 1034.0
20201028121224 43 182 9.0 11.0 0.00 0.00 0.00 38 1034.0
20201028121117 44 184 6.0 11.0 0.00 0.00 0.00 38 1034.0
20201028121010 44 181 4.0 11.0 0.00 0.00 0.00 38 1034.0
20201028120920 44 180 4.0 11.0 0.00 0.00 0.00 38 1034.0
20201028120814 44 176 4.0 13.0 0.00 0.00 0.00 38 1034.0
20201028120710 44 173 3.0 13.0 0.00 0.00 0.00 38 1034.0
20201028120611 44 177 5.0 15.0 0.00 0.00 0.00 38 1034.0
20201028120511 44 179 7.0 15.0 0.00 0.00 0.00 38 1034.0
20201028120422 44 181 8.0 15.0 0.00 0.00 0.00 38 1034.0
20201028120320 44 178 7.0 15.0 0.00 0.00 0.00 38 1034.0
20201028120211 43 178 7.0 15.0 0.00 0.00 0.00 38 1034.0
20201028120118 43 178 8.0 15.0 0.00 0.00 0.00 38 1034.0
20201028120038 43 179 9.0 15.0 0.00 0.00 0.00 38 1034.0
20201028115938 43 180 9.0 15.0 0.00 0.00 0.00 38 1034.0
20201028115809 43 179 6.0 15.0 0.00 0.00 0.00 38 1034.0
20201028115732 44 181 9.0 15.0 0.00 0.00 0.00 38 1034.0
20201028115610 44 187 7.0 15.0 0.00 0.00 0.00 38 1034.0
20201028115521 44 182 7.0 13.0 0.00 0.00 0.00 38 1034.0
20201028115420 44 181 7.0 15.0 0.00 0.00 0.00 38 1034.0
20201028115321 44 179 6.0 15.0 0.00 0.00 0.00 38 1034.0
20201028115211 44 176 5.0 15.0 0.00 0.00 0.00 38 1034.0
20201028115116 44 178 7.0 15.0 0.00 0.00 0.00 37 1034.0
20201028115019 44 181 9.0 15.0 0.00 0.00 0.00 38 1034.0
20201028114913 44 181 3.0 15.0 0.00 0.00 0.00 37 1034.0
20201028114812 44 181 3.0 15.0 0.00 0.00 0.00 37 1035.0
20201028114721 44 181 11.0 15.0 0.00 0.00 0.00 37 1035.0
20201028114609 44 176 12.0 15.0 0.00 0.00 0.00 37 1035.0
20201028114520 44 175 13.0 15.0 0.00 0.00 0.00 37 1035.0
20201028114419 44 175 9.0 13.0 0.00 0.00 0.00 38 1035.0
20201028114310 44 182 6.0 11.0 0.00 0.00 0.00 38 1035.0
20201028114213 44 186 4.0 11.0 0.00 0.00 0.00 38 1035.0
20201028114114 44 179 4.0 11.0 0.00 0.00 0.00 38 1035.0
20201028114009 44 174 3.0 11.0 0.00 0.00 0.00 38 1035.0
20201028113909 44 169 2.0 11.0 0.00 0.00 0.00 38 1035.0
20201028113812 44 168 4.0 11.0 0.00 0.00 0.00 38 1035.0
20201028113709 44 171 7.0 11.0 0.00 0.00 0.00 38 1035.0
20201028113610 44 173 5.0 10.0 0.00 0.00 0.00 38 1035.0
20201028113511 44 172 4.0 13.0 0.00 0.00 0.00 38 1035.0
20201028113409 44 169 4.0 13.0 0.00 0.00 0.00 39 1035.0
20201028113310 44 170 7.0 13.0 0.00 0.00 0.00 38 1034.0
20201028113209 44 171 9.0 13.0 0.00 0.00 0.00 38 1034.0
20201028113112 44 172 7.0 13.0 0.00 0.00 0.00 38 1034.0
20201028113022 44 167 6.0 13.0 0.00 0.00 0.00 38 1034.0
20201028112909 44 168 6.0 13.0 0.00 0.00 0.00 39 1034.0
20201028112809 44 173 4.0 13.0 0.00 0.00 0.00 39 1034.0
20201028112711 44 171 9.0 13.0 0.00 0.00 0.00 39 1034.0
20201028112611 44 171 10.0 13.0 0.00 0.00 0.00 39 1034.0
20201028112516 44 171 6.0 13.0 0.00 0.00 0.00 39 1034.0
20201028112410 44 174 4.0 11.0 0.00 0.00 0.00 39 1034.0
20201028112309 44 173 7.0 11.0 0.00 0.00 0.00 39 1034.0
20201028112210 43 175 9.0 13.0 0.00 0.00 0.00 39 1034.0
20201028112124 43 172 6.0 13.0 0.00 0.00 0.00 39 1034.0
20201028112021 43 176 6.0 14.0 0.00 0.00 0.00 39 1034.0
20201028111910 43 178 7.0 14.0 0.00 0.00 0.00 39 1034.0
20201028111811 43 177 6.0 14.0 0.00 0.00 0.00 39 1034.0
20201028111714 43 171 7.0 14.0 0.00 0.00 0.00 39 1034.0
20201028111613 44 171 6.0 14.0 0.00 0.00 0.00 39 1034.0
20201028111523 44 168 5.0 14.0 0.00 0.00 0.00 39 1034.0
20201028111411 43 169 9.0 14.0 0.00 0.00 0.00 39 1034.0
20201028111320 43 167 9.0 14.0 0.00 0.00 0.00 39 1034.0
20201028111210 43 167 9.0 14.0 0.00 0.00 0.00 39 1034.0
20201028111109 43 171 9.0 14.0 0.00 0.00 0.00 39 1034.0
20201028111009 44 168 9.0 14.0 0.00 0.00 0.00 38 1034.0
20201028110909 44 169 9.0 11.0 0.00 0.00 0.00 39 1034.0
20201028110812 44 175 3.0 11.0 0.00 0.00 0.00 39 1034.0
20201028110714 44 187 2.0 11.0 0.00 0.00 0.00 39 1034.0
20201028110610 44 186 2.0 11.0 0.00 0.00 0.00 39 1034.0
20201028110520 44 188 3.0 11.0 0.00 0.00 0.00 39 1034.0
20201028110410 44 187 9.0 11.0 0.00 0.00 0.00 40 1034.0
20201028110316 43 191 3.0 11.0 0.00 0.00 0.00 39 1034.0
20201028110213 43 192 4.0 11.0 0.00 0.00 0.00 39 1034.0
20201028110141 43 204 7.0 11.0 0.00 0.00 0.00 39 1034.0
20201028110040 44 202 9.0 11.0 0.00 0.00 0.00 39 1034.0
20201028105917 44 204 9.0 11.0 0.00 0.00 0.00 39 1034.0
20201028105812 44 206 6.0 12.0 0.00 0.00 0.00 39 1034.0
20201028105710 44 202 4.0 12.0 0.00 0.00 0.00 39 1034.0
20201028105610 44 203 4.0 12.0 0.00 0.00 0.00 39 1034.0
20201028105520 44 209 2.0 12.0 0.00 0.00 0.00 39 1034.0
20201028105410 44 208 8.0 12.0 0.00 0.00 0.00 39 1034.0